Wetterdaten: Samstag, 15.02.2020
Datum Zeit Temp. Aussen Temp. o. S. Temp +5cm Feuchte Auss Luftdruck Regen Sonnenschein Regendauer Solar Windben Empfang
15.02.2020 00:00 6,5 C 5,6 C 5,0 C 89 % 1023,2 hPa 0,0 l/m 0 min 0 min 0 W/m 16,1 km/h (3 Bft) 97,87 %
15.02.2020 00:02 6,5 C 5,6 C 5,0 C 89 % 1023,1 hPa 0,0 l/m 0 min 0 min 0 W/m 12,9 km/h (3 Bft) 97,67 %
15.02.2020 00:04 6,5 C 5,6 C 5,0 C 89 % 1023,1 hPa 0,0 l/m 0 min 0 min 0 W/m 16,1 km/h (3 Bft) 91,30 %
15.02.2020 00:08 6,5 C 5,6 C 5,0 C 89 % 1023,0 hPa 0,0 l/m 0 min 0 min 0 W/m 19,3 km/h (3 Bft) 97,87 %
15.02.2020 00:10 6,4 C 5,6 C 5,0 C 89 % 1023,0 hPa 0,0 l/m 0 min 0 min 0 W/m 16,1 km/h (3 Bft) 97,87 %
15.02.2020 00:12 6,4 C 5,6 C 5,0 C 89 % 1023,1 hPa 0,0 l/m 0 min 0 min 0 W/m 6,4 km/h (2 Bft) 97,87 %
15.02.2020 00:14 6,4 C 5,6 C 5,0 C 89 % 1023,1 hPa 0,0 l/m 0 min 0 min 0 W/m 12,9 km/h (3 Bft) 97,87 %
15.02.2020 00:16 6,4 C 5,6 C 5,0 C 89 % 1023,1 hPa 0,0 l/m 0 min 0 min 0 W/m 12,9 km/h (3 Bft) 97,83 %
15.02.2020 00:18 6,4 C 5,6 C 4,4 C 89 % 1023,1 hPa 0,0 l/m 0 min 0 min 0 W/m 6,4 km/h (2 Bft) 97,87 %
15.02.2020 00:20 6,4 C 5,6 C 4,4 C 89 % 1023,0 hPa 0,0 l/m 0 min 0 min 0 W/m 16,1 km/h (3 Bft) 97,87 %
15.02.2020 00:22 6,4 C 5,6 C 4,4 C 89 % 1022,9 hPa 0,0 l/m 0 min 0 min 0 W/m 12,9 km/h (3 Bft) 91,49 %
15.02.2020 00:24 6,3 C 5,6 C 4,4 C 89 % 1023,0 hPa 0,0 l/m 0 min 0 min 0 W/m 12,9 km/h (3 Bft) 97,87 %
15.02.2020 00:26 6,3 C 5,6 C 4,4 C 89 % 1023,0 hPa 0,0 l/m 0 min 0 min 0 W/m 12,9 km/h (3 Bft) 100,00 %
15.02.2020 00:28 6,3 C 5,6 C 4,4 C 89 % 1023,0 hPa 0,0 l/m 0 min 0 min 0 W/m 16,1 km/h (3 Bft) 97,83 %
15.02.2020 00:30 6,3 C 5,6 C 4,4 C 89 % 1023,0 hPa 0,0 l/m 0 min 0 min 0 W/m 6,4 km/h (2 Bft) 100,00 %
15.02.2020 00:32 6,3 C 5,0 C 4,4 C 89 % 1023,0 hPa 0,0 l/m 0 min 0 min 0 W/m 6,4 km/h (2 Bft) 100,00 %
15.02.2020 00:34 6,3 C 5,6 C 4,4 C 89 % 1023,0 hPa 0,0 l/m 0 min 0 min 0 W/m 12,9 km/h (3 Bft) 100,00 %
15.02.2020 00:36 6,3 C 5,6 C 4,4 C 89 % 1023,0 hPa 0,0 l/m 0 min 0 min 0 W/m 12,9 km/h (3 Bft) 100,00 %
15.02.2020 00:38 6,3 C 5,6 C 4,4 C 89 % 1023,0 hPa 0,0 l/m 0 min 0 min 0 W/m 6,4 km/h (2 Bft) 97,87 %
15.02.2020 00:40 6,2 C 5,6 C 4,4 C 89 % 1022,9 hPa 0,0 l/m 0 min 0 min 0 W/m 16,1 km/h (3 Bft) 95,65 %
15.02.2020 00:42 6,2 C 5,6 C 4,4 C 89 % 1022,9 hPa 0,0 l/m 0 min 0 min 0 W/m 12,9 km/h (3 Bft) 100,00 %
15.02.2020 00:44 6,2 C 5,0 C 4,4 C 89 % 1023,0 hPa 0,0 l/m 0 min 0 min 0 W/m 12,9 km/h (3 Bft) 100,00 %
15.02.2020 00:46 6,2 C 5,0 C 4,4 C 89 % 1022,9 hPa 0,0 l/m 0 min 0 min 0 W/m 12,9 km/h (3 Bft) 100,00 %
15.02.2020 00:48 6,2 C 5,0 C 4,4 C 89 % 1022,9 hPa 0,0 l/m 0 min 0 min 0 W/m 12,9 km/h (3 Bft) 100,00 %
15.02.2020 00:50 6,1 C 5,0 C 4,4 C 89 % 1022,9 hPa 0,0 l/m 0 min 0 min 0 W/m 16,1 km/h (3 Bft) 95,74 %
15.02.2020 00:52 6,1 C 5,0 C 4,4 C 90 % 1022,9 hPa 0,0 l/m 0 min 0 min 0 W/m 12,9 km/h (3 Bft) 97,83 %
15.02.2020 00:54 6,1 C 5,0 C 4,4 C 89 % 1023,0 hPa 0,0 l/m 0 min 0 min 0 W/m 12,9 km/h (3 Bft) 95,74 %
15.02.2020 00:56 6,1 C 5,0 C 4,4 C 89 % 1023,0 hPa 0,0 l/m 0 min 0 min 0 W/m 16,1 km/h (3 Bft) 97,87 %
15.02.2020 00:58 6,1 C 5,0 C 4,4 C 89 % 1022,9 hPa 0,0 l/m 0 min 0 min 0 W/m 16,1 km/h (3 Bft) 97,87 %
15.02.2020 01:00 6,1 C 5,0 C 4,4 C 90 % 1022,9 hPa 0,0 l/m 0 min 0 min 0 W/m 12,9 km/h (3 Bft) 95,74 %
15.02.2020 01:02 6,0 C 5,0 C 4,4 C 90 % 1022,9 hPa 0,0 l/m 0 min 0 min 0 W/m 6,4 km/h (2 Bft) 97,83 %
15.02.2020 01:04 6,0 C 5,0 C 4,4 C 90 % 1022,9 hPa 0,0 l/m 0 min 0 min 0 W/m 6,4 km/h (2 Bft) 97,87 %
15.02.2020 01:06 5,9 C 5,0 C 4,4 C 90 % 1022,9 hPa 0,0 l/m 0 min 0 min 0 W/m 12,9 km/h (3 Bft) 97,87 %
15.02.2020 01:08 5,9 C 5,0 C 4,4 C 90 % 1022,9 hPa 0,0 l/m 0 min 0 min 0 W/m 12,9 km/h (3 Bft) 97,87 %
15.02.2020 01:10 5,9 C 5,0 C 4,4 C 90 % 1022,9 hPa 0,0 l/m 0 min 0 min 0 W/m 6,4 km/h (2 Bft) 97,87 %
15.02.2020 01:12 5,9 C 5,0 C 4,4 C 90 % 1022,9 hPa 0,0 l/m 0 min 0 min 0 W/m 12,9 km/h (3 Bft) 93,62 %
15.02.2020 01:14 5,9 C 5,0 C 4,4 C 90 % 1022,9 hPa 0,0 l/m 0 min 0 min 0 W/m 16,1 km/h (3 Bft) 97,83 %
15.02.2020 01:16 5,9 C 5,0 C 4,4 C 90 % 1022,9 hPa 0,0 l/m 0 min 0 min 0 W/m 12,9 km/h (3 Bft) 97,87 %
15.02.2020 01:18 5,9 C 5,0 C 4,4 C 90 % 1023,0 hPa 0,0 l/m 0 min 0 min 0 W/m 16,1 km/h (3 Bft) 97,87 %
15.02.2020 01:20 5,9 C 5,0 C 4,4 C 90 % 1023,0 hPa 0,0 l/m 0 min 0 min 0 W/m 16,1 km/h (3 Bft) 97,87 %
15.02.2020 01:22 5,9 C 5,0 C 4,4 C 90 % 1022,9 hPa 0,0 l/m 0 min 0 min 0 W/m 16,1 km/h (3 Bft) 95,74 %
15.02.2020 01:24 5,8 C 5,0 C 4,4 C 90 % 1022,9 hPa 0,0 l/m 0 min 0 min 0 W/m 12,9 km/h (3 Bft) 97,87 %
15.02.2020 01:26 5,8 C 5,0 C 4,4 C 90 % 1022,9 hPa 0,0 l/m 0 min 0 min 0 W/m 16,1 km/h (3 Bft) 97,83 %
15.02.2020 01:28 5,8 C 5,0 C 4,4 C 90 % 1022,9 hPa 0,0 l/m 0 min 0 min 0 W/m 12,9 km/h (3 Bft) 97,87 %
15.02.2020 01:30 5,8 C 5,0 C 4,4 C 90 % 1022,8 hPa 0,0 l/m 0 min 0 min 0 W/m 22,5 km/h (4 Bft) 97,87 %
15.02.2020 01:32 5,8 C 5,0 C 4,4 C 90 % 1022,8 hPa 0,0 l/m 0 min 0 min 0 W/m 19,3 km/h (3 Bft) 97,87 %
15.02.2020 01:34 5,8 C 5,0 C 4,4 C 90 % 1022,8 hPa 0,0 l/m 0 min 0 min 0 W/m 12,9 km/h (3 Bft) 97,87 %
15.02.2020 01:36 5,8 C 5,0 C 4,4 C 90 % 1022,7 hPa 0,0 l/m 0 min 0 min 0 W/m 12,9 km/h (3 Bft) 100,00 %
15.02.2020 01:38 5,8 C 5,0 C 4,4 C 90 % 1022,8 hPa 0,0 l/m 0 min 0 min 0 W/m 19,3 km/h (3 Bft) 100,00 %
15.02.2020 01:40 5,8 C 5,0 C 4,4 C 91 % 1022,8 hPa 0,0 l/m 0 min 0 min 0 W/m 22,5 km/h (4 Bft) 100,00 %
15.02.2020 01:42 5,8 C 5,0 C 4,4 C 91 % 1022,7 hPa 0,0 l/m 0 min 0 min 0 W/m 16,1 km/h (3 Bft) 100,00 %
15.02.2020 01:44 5,8 C 5,0 C 4,4 C 91 % 1022,7 hPa 0,0 l/m 0 min 0 min 0 W/m 19,3 km/h (3 Bft) 97,87 %
15.02.2020 01:46 5,7 C 5,0 C 4,4 C 91 % 1022,6 hPa 0,0 l/m 0 min 0 min 0 W/m 19,3 km/h (3 Bft) 100,00 %
15.02.2020 01:48 5,7 C 5,0 C 4,4 C 91 % 1022,6 hPa 0,0 l/m 0 min 0 min 0 W/m 16,1 km/h (3 Bft) 100,00 %
15.02.2020 01:50 5,7 C 5,0 C 4,4 C 91 % 1022,6 hPa 0,0 l/m 0 min 0 min 0 W/m 19,3 km/h (3 Bft) 95,65 %
15.02.2020 01:52 5,7 C 5,0 C 4,4 C 91 % 1022,6 hPa 0,0 l/m 0 min 0 min 0 W/m 16,1 km/h (3 Bft) 97,87 %
15.02.2020 01:54 5,7 C 5,0 C 4,4 C 91 % 1022,6 hPa 0,0 l/m 0 min 0 min 0 W/m 19,3 km/h (3 Bft) 97,87 %
15.02.2020 01:56 5,7 C 5,0 C 4,4 C 91 % 1022,7 hPa 0,0 l/m 0 min 0 min 0 W/m 19,3 km/h (3 Bft) 100,00 %
15.02.2020 01:58 5,7 C 5,0 C 4,4 C 91 % 1022,6 hPa 0,0 l/m 0 min 0 min 0 W/m 16,1 km/h (3 Bft) 97,87 %
15.02.2020 02:00 5,7 C 5,0 C 4,4 C 91 % 1022,6 hPa 0,0 l/m 0 min 0 min 0 W/m 19,3 km/h (3 Bft) 97,87 %
15.02.2020 02:02 5,7 C 5,0 C 4,4 C 91 % 1022,6 hPa 0,0 l/m 0 min 0 min 0 W/m 25,7 km/h (4 Bft) 97,83 %
15.02.2020 02:04 5,7 C 5,0 C 4,4 C 91 % 1022,6 hPa 0,0 l/m 0 min 0 min 0 W/m 22,5 km/h (4 Bft) 97,87 %
15.02.2020 02:06 5,6 C 5,0 C 4,4 C 91 % 1022,6 hPa 0,0 l/m 0 min 0 min 0 W/m 19,3 km/h (3 Bft) 97,87 %
15.02.2020 02:08 5,6 C 5,0 C 4,4 C 91 % 1022,5 hPa 0,0 l/m 0 min 0 min 0 W/m 25,7 km/h (4 Bft) 97,87 %
15.02.2020 02:10 5,6 C 5,0 C 4,4 C 91 % 1022,4 hPa 0,0 l/m 0 min 0 min 0 W/m 22,5 km/h (4 Bft) 95,74 %
15.02.2020 02:12 5,6 C 5,0 C 4,4 C 91 % 1022,5 hPa 0,0 l/m 0 min 0 min 0 W/m 19,3 km/h (3 Bft) 97,87 %
15.02.2020 02:14 5,6 C 5,0 C 3,9 C 91 % 1022,4 hPa 0,0 l/m 0 min 0 min 0 W/m 22,5 km/h (4 Bft) 97,83 %
15.02.2020 02:16 5,6 C 5,0 C 3,9 C 91 % 1022,4 hPa 0,0 l/m 0 min 0 min 0 W/m 19,3 km/h (3 Bft) 97,87 %
15.02.2020 02:18 5,6 C 5,0 C 3,9 C 91 % 1022,4 hPa 0,0 l/m 0 min 0 min 0 W/m 19,3 km/h (3 Bft) 97,87 %
15.02.2020 02:20 5,6 C 5,0 C 3,9 C 91 % 1022,5 hPa 0,0 l/m 0 min 0 min 0 W/m 16,1 km/h (3 Bft) 97,87 %
15.02.2020 02:22 5,6 C 5,0 C 3,9 C 91 % 1022,5 hPa 0,0 l/m 0 min 0 min 0 W/m 19,3 km/h (3 Bft) 93,62 %
15.02.2020 02:24 5,6 C 5,0 C 3,9 C 91 % 1022,6 hPa 0,0 l/m 0 min 0 min 0 W/m 19,3 km/h (3 Bft) 95,65 %
15.02.2020 02:26 5,6 C 5,0 C 3,9 C 91 % 1022,6 hPa 0,0 l/m 0 min 0 min 0 W/m 6,4 km/h (2 Bft) 95,74 %
15.02.2020 02:28 5,6 C 4,4 C 3,9 C 91 % 1022,5 hPa 0,0 l/m 0 min 0 min 0 W/m 12,9 km/h (3 Bft) 95,74 %
15.02.2020 02:30 5,6 C 4,4 C 3,9 C 91 % 1022,5 hPa 0,0 l/m 0 min 0 min 0 W/m 16,1 km/h (3 Bft) 95,74 %
15.02.2020 02:32 5,6 C 5,0 C 3,9 C 91 % 1022,5 hPa 0,0 l/m 0 min 0 min 0 W/m 19,3 km/h (3 Bft) 95,74 %
15.02.2020 02:34 5,5 C 4,4 C 3,9 C 91 % 1022,5 hPa 0,0 l/m 0 min 0 min 0 W/m 16,1 km/h (3 Bft) 95,74 %
15.02.2020 02:36 5,5 C 4,4 C 3,9 C 91 % 1022,5 hPa 0,0 l/m 0 min 0 min 0 W/m 12,9 km/h (3 Bft) 95,65 %
15.02.2020 02:38 5,5 C 4,4 C 3,9 C 91 % 1022,5 hPa 0,0 l/m 0 min 0 min 0 W/m 19,3 km/h (3 Bft) 93,62 %
15.02.2020 02:40 5,5 C 4,4 C 3,9 C 91 % 1022,4 hPa 0,0 l/m 0 min 0 min 0 W/m 16,1 km/h (3 Bft) 91,49 %
15.02.2020 02:42 5,4 C 4,4 C 3,9 C 91 % 1022,4 hPa 0,0 l/m 0 min 0 min 0 W/m 19,3 km/h (3 Bft) 93,62 %
15.02.2020 02:44 5,4 C 4,4 C 3,9 C 91 % 1022,3 hPa 0,0 l/m 0 min 0 min 0 W/m 19,3 km/h (3 Bft) 95,74 %
15.02.2020 02:46 5,4 C 4,4 C 3,9 C 91 % 1022,2 hPa 0,0 l/m 0 min 0 min 0 W/m 19,3 km/h (3 Bft) 95,74 %
15.02.2020 02:48 5,4 C 4,4 C 3,9 C 91 % 1022,2 hPa 0,0 l/m 0 min 0 min 0 W/m 25,7 km/h (4 Bft) 97,83 %
15.02.2020 02:50 5,4 C 4,4 C 3,9 C 91 % 1022,1 hPa 0,0 l/m 0 min 0 min 0 W/m 19,3 km/h (3 Bft) 95,74 %
15.02.2020 02:52 5,3 C 4,4 C 3,9 C 91 % 1022,1 hPa 0,0 l/m 0 min 0 min 0 W/m 22,5 km/h (4 Bft) 97,87 %
15.02.2020 02:54 5,3 C 4,4 C 3,9 C 91 % 1022,1 hPa 0,0 l/m 0 min 0 min 0 W/m 16,1 km/h (3 Bft) 97,87 %
15.02.2020 02:56 5,3 C 4,4 C 3,9 C 91 % 1022,1 hPa 0,0 l/m 0 min 0 min 0 W/m 19,3 km/h (3 Bft) 97,87 %
15.02.2020 02:58 5,3 C 4,4 C 3,9 C 91 % 1022,1 hPa 0,0 l/m 0 min 0 min 0 W/m 12,9 km/h (3 Bft) 95,74 %
15.02.2020 03:00 5,3 C 4,4 C 3,9 C 91 % 1022,1 hPa 0,0 l/m 0 min 0 min 0 W/m 22,5 km/h (4 Bft) 97,83 %
15.02.2020 03:02 5,3 C 4,4 C 3,9 C 91 % 1022,2 hPa 0,0 l/m 0 min 0 min 0 W/m 22,5 km/h (4 Bft) 97,87 %
15.02.2020 03:04 5,3 C 4,4 C 3,9 C 91 % 1022,2 hPa 0,0 l/m 0 min 0 min 0 W/m 16,1 km/h (3 Bft) 97,87 %
15.02.2020 03:06 5,2 C 4,4 C 3,9 C 91 % 1022,1 hPa 0,0 l/m 0 min 0 min 0 W/m 16,1 km/h (3 Bft) 97,87 %
15.02.2020 03:08 5,2 C 4,4 C 3,9 C 91 % 1022,1 hPa 0,0 l/m 0 min 0 min 0 W/m 22,5 km/h (4 Bft) 97,87 %
15.02.2020 03:10 5,2 C 4,4 C 3,9 C 91 % 1022,1 hPa 0,0 l/m 0 min 0 min 0 W/m 19,3 km/h (3 Bft) 100,00 %
15.02.2020 03:12 5,2 C 4,4 C 3,9 C 92 % 1022,1 hPa 0,0 l/m 0 min 0 min 0 W/m 19,3 km/h (3 Bft) 100,00 %
15.02.2020 03:14 5,2 C 4,4 C 3,9 C 92 % 1022,0 hPa 0,0 l/m 0 min 0 min 0 W/m 22,5 km/h (4 Bft) 97,87 %
15.02.2020 03:16 5,2 C 4,4 C 3,9 C 92 % 1021,9 hPa 0,0 l/m 0 min 0 min 0 W/m 25,7 km/h (4 Bft) 97,87 %
15.02.2020 03:18 5,2 C 4,4 C 3,9 C 92 % 1021,9 hPa 0,0 l/m 0 min 0 min 0 W/m 25,7 km/h (4 Bft) 95,74 %
15.02.2020 03:20 5,1 C 4,4 C 3,9 C 92 % 1021,9 hPa 0,0 l/m 0 min 0 min 0 W/m 22,5 km/h (4 Bft) 100,00 %
15.02.2020 03:22 5,1 C 4,4 C 3,9 C 92 % 1021,9 hPa 0,0 l/m 0 min 0 min 0 W/m 25,7 km/h (4 Bft) 100,00 %
15.02.2020 03:24 5,1 C 4,4 C 3,9 C 92 % 1021,8 hPa 0,0 l/m 0 min 0 min 0 W/m 16,1 km/h (3 Bft) 97,83 %
15.02.2020 03:26 5,1 C 4,4 C 3,9 C 92 % 1021,8 hPa 0,0 l/m 0 min 0 min 0 W/m 16,1 km/h (3 Bft) 95,74 %
15.02.2020 03:28 5,1 C 4,4 C 3,9 C 92 % 1021,7 hPa 0,0 l/m 0 min 0 min 0 W/m 19,3 km/h (3 Bft) 100,00 %
15.02.2020 03:30 5,1 C 4,4 C 3,9 C 92 % 1021,7 hPa 0,0 l/m 0 min 0 min 0 W/m 12,9 km/h (3 Bft) 97,87 %
15.02.2020 03:32 5,1 C 4,4 C 3,9 C 92 % 1021,7 hPa 0,0 l/m 0 min 0 min 0 W/m 19,3 km/h (3 Bft) 97,87 %
15.02.2020 03:34 5,1 C 4,4 C 3,9 C 92 % 1021,7 hPa 0,0 l/m 0 min 0 min 0 W/m 19,3 km/h (3 Bft) 97,83 %
15.02.2020 03:36 5,2 C 5,0 C 3,9 C 92 % 1021,6 hPa 0,0 l/m 0 min 0 min 0 W/m 25,7 km/h (4 Bft) 93,62 %
15.02.2020 03:38 5,2 C 5,0 C 3,9 C 92 % 1021,5 hPa 0,0 l/m 0 min 0 min 0 W/m 12,9 km/h (3 Bft) 97,87 %
15.02.2020 03:40 5,2 C 5,0 C 3,9 C 92 % 1021,5 hPa 0,0 l/m 0 min 0 min 0 W/m 12,9 km/h (3 Bft) 97,87 %
15.02.2020 03:42 5,2 C 5,0 C 3,9 C 92 % 1021,5 hPa 0,0 l/m 0 min 0 min 0 W/m 19,3 km/h (3 Bft) 97,87 %
15.02.2020 03:44 5,2 C 4,4 C 3,9 C 92 % 1021,6 hPa 0,0 l/m 0 min 0 min 0 W/m 16,1 km/h (3 Bft) 97,87 %
15.02.2020 03:46 5,2 C 4,4 C 3,9 C 92 % 1021,5 hPa 0,0 l/m 0 min 0 min 0 W/m 19,3 km/h (3 Bft) 97,83 %
15.02.2020 03:48 5,2 C 4,4 C 3,9 C 92 % 1021,5 hPa 0,0 l/m 0 min 0 min 0 W/m 19,3 km/h (3 Bft) 97,87 %
15.02.2020 03:50 5,2 C 4,4 C 3,9 C 92 % 1021,4 hPa 0,0 l/m 0 min 0 min 0 W/m 19,3 km/h (3 Bft) 97,87 %
15.02.2020 03:52 5,3 C 5,0 C 3,9 C 92 % 1021,5 hPa 0,0 l/m 0 min 0 min 0 W/m 19,3 km/h (3 Bft) 97,87 %
15.02.2020 03:54 5,3 C 4,4 C 3,9 C 92 % 1021,5 hPa 0,0 l/m 0 min 0 min 0 W/m 16,1 km/h (3 Bft) 97,87 %
15.02.2020 03:56 5,3 C 4,4 C 3,9 C 92 % 1021,5 hPa 0,0 l/m 0 min 0 min 0 W/m 16,1 km/h (3 Bft) 97,87 %
15.02.2020 03:58 5,3 C 4,4 C 3,9 C 92 % 1021,6 hPa 0,0 l/m 0 min 0 min 0 W/m 22,5 km/h (4 Bft) 97,83 %
15.02.2020 04:00 5,3 C 4,4 C 3,9 C 92 % 1021,6 hPa 0,0 l/m 0 min 0 min 0 W/m 19,3 km/h (3 Bft) 97,87 %
15.02.2020 04:02 5,3 C 4,4 C 3,9 C 92 % 1021,6 hPa 0,0 l/m 0 min 0 min 0 W/m 6,4 km/h (2 Bft) 100,00 %
15.02.2020 04:04 5,3 C 4,4 C 3,9 C 92 % 1021,7 hPa 0,0 l/m 0 min 0 min 0 W/m 0,0 km/h (0 Bft) 97,87 %
15.02.2020 04:06 5,3 C 4,4 C 3,9 C 92 % 1021,8 hPa 0,0 l/m 0 min 0 min 0 W/m 12,9 km/h (3 Bft) 97,87 %
15.02.2020 04:08 5,3 C 4,4 C 3,9 C 92 % 1021,7 hPa 0,0 l/m 0 min 0 min 0 W/m 0,0 km/h (0 Bft) 95,74 %
15.02.2020 04:10 5,3 C 4,4 C 3,9 C 92 % 1021,5 hPa 0,0 l/m 0 min 0 min 0 W/m 0,0 km/h (0 Bft) 97,83 %
15.02.2020 04:12 5,2 C 4,4 C 3,9 C 92 % 1021,5 hPa 0,0 l/m 0 min 0 min 0 W/m 19,3 km/h (3 Bft) 95,74 %
15.02.2020 04:14 5,2 C 4,4 C 3,9 C 92 % 1021,5 hPa 0,0 l/m 0 min 0 min 0 W/m 12,9 km/h (3 Bft) 100,00 %
15.02.2020 04:16 5,2 C 4,4 C 3,9 C 92 % 1021,5 hPa 0,0 l/m 0 min 0 min 0 W/m 12,9 km/h (3 Bft) 100,00 %
15.02.2020 04:18 5,2 C 4,4 C 3,9 C 92 % 1021,5 hPa 0,0 l/m 0 min 0 min 0 W/m 16,1 km/h (3 Bft) 100,00 %
15.02.2020 04:20 5,2 C 4,4 C 3,9 C 92 % 1021,5 hPa 0,0 l/m 0 min 0 min 0 W/m 16,1 km/h (3 Bft) 100,00 %
15.02.2020 04:22 5,2 C 4,4 C 3,9 C 92 % 1021,4 hPa 0,0 l/m 0 min 0 min 0 W/m 0,0 km/h (0 Bft) 100,00 %
15.02.2020 04:24 5,2 C 4,4 C 3,9 C 92 % 1021,5 hPa 0,0 l/m 0 min 0 min 0 W/m 0,0 km/h (0 Bft) 97,87 %
15.02.2020 04:26 5,2 C 4,4 C 3,9 C 92 % 1021,4 hPa 0,0 l/m 0 min 0 min 0 W/m 6,4 km/h (2 Bft) 100,00 %
15.02.2020 04:28 5,2 C 4,4 C 3,9 C 92 % 1021,4 hPa 0,0 l/m 0 min 0 min 0 W/m 3,2 km/h (1 Bft) 97,87 %
15.02.2020 04:30 5,2 C 4,4 C 3,9 C 92 % 1021,5 hPa 0,0 l/m 0 min 0 min 0 W/m 0,0 km/h (0 Bft) 61,70 %
15.02.2020 04:32 5,2 C 4,4 C 3,9 C 92 % 1021,5 hPa 0,0 l/m 0 min 0 min 0 W/m 6,4 km/h (2 Bft) 93,48 %
15.02.2020 04:34 5,2 C 4,4 C 3,9 C 92 % 1021,5 hPa 0,0 l/m 0 min 0 min 0 W/m 0,0 km/h (0 Bft) 100,00 %
15.02.2020 04:36 5,1 C 4,4 C 3,9 C 92 % 1021,5 hPa 0,0 l/m 0 min 0 min 0 W/m 0,0 km/h (0 Bft) 100,00 %
15.02.2020 04:38 5,1 C 4,4 C 3,9 C 92 % 1021,4 hPa 0,0 l/m 0 min 0 min 0 W/m 6,4 km/h (2 Bft) 100,00 %
15.02.2020 04:40 5,1 C 4,4 C 3,9 C 92 % 1021,4 hPa 0,0 l/m 0 min 0 min 0 W/m 19,3 km/h (3 Bft) 100,00 %
15.02.2020 04:42 5,1 C 4,4 C 3,9 C 92 % 1021,5 hPa 0,0 l/m 0 min 0 min 0 W/m 0,0 km/h (0 Bft) 100,00 %
15.02.2020 04:44 5,1 C 4,4 C 3,9 C 92 % 1021,4 hPa 0,0 l/m 0 min 0 min 0 W/m 16,1 km/h (3 Bft) 100,00 %
15.02.2020 04:46 5,1 C 4,4 C 3,9 C 92 % 1021,5 hPa 0,0 l/m 0 min 0 min 0 W/m 12,9 km/h (3 Bft) 100,00 %
15.02.2020 04:48 5,1 C 4,4 C 3,9 C 92 % 1021,5 hPa 0,0 l/m 0 min 0 min 0 W/m 3,2 km/h (1 Bft) 100,00 %
15.02.2020 04:50 5,1 C 4,4 C 3,9 C 92 % 1021,5 hPa 0,0 l/m 0 min 0 min 0 W/m 16,1 km/h (3 Bft) 100,00 %
15.02.2020 04:52 5,1 C 4,4 C 3,9 C 92 % 1021,4 hPa 0,0 l/m 0 min 0 min 0 W/m 19,3 km/h (3 Bft) 100,00 %
15.02.2020 04:54 5,1 C 4,4 C 3,9 C 92 % 1021,4 hPa 0,0 l/m 0 min 0 min 0 W/m 6,4 km/h (2 Bft) 100,00 %
15.02.2020 04:56 5,1 C 4,4 C 3,9 C 92 % 1021,4 hPa 0,0 l/m 0 min 0 min 0 W/m 12,9 km/h (3 Bft) 100,00 %
15.02.2020 04:58 5,1 C 4,4 C 3,9 C 92 % 1021,4 hPa 0,0 l/m 0 min 0 min 0 W/m 3,2 km/h (1 Bft) 100,00 %
15.02.2020 05:00 5,1 C 4,4 C 3,9 C 92 % 1021,3 hPa 0,0 l/m 0 min 0 min 0 W/m 16,1 km/h (3 Bft) 100,00 %
15.02.2020 05:02 5,1 C 4,4 C 3,9 C 92 % 1021,3 hPa 0,0 l/m 0 min 0 min 0 W/m 12,9 km/h (3 Bft) 97,87 %
15.02.2020 05:04 5,1 C 4,4 C 3,9 C 92 % 1021,3 hPa 0,0 l/m 0 min 0 min 0 W/m 12,9 km/h (3 Bft) 97,87 %
15.02.2020 05:06 5,1 C 4,4 C 3,9 C 92 % 1021,3 hPa 0,0 l/m 0 min 0 min 0 W/m 6,4 km/h (2 Bft) 97,87 %
15.02.2020 05:08 5,1 C 4,4 C 3,9 C 92 % 1021,3 hPa 0,0 l/m 0 min 0 min 0 W/m 0,0 km/h (0 Bft) 97,83 %
15.02.2020 05:10 5,1 C 4,4 C 3,9 C 92 % 1021,3 hPa 0,0 l/m 0 min 0 min 0 W/m 3,2 km/h (1 Bft) 97,87 %
15.02.2020 05:12 5,1 C 4,4 C 3,9 C 92 % 1021,2 hPa 0,0 l/m 0 min 0 min 0 W/m 12,9 km/h (3 Bft) 97,87 %
15.02.2020 05:14 5,1 C 4,4 C 3,9 C 92 % 1021,2 hPa 0,0 l/m 0 min 0 min 0 W/m 12,9 km/h (3 Bft) 97,87 %
15.02.2020 05:16 5,1 C 4,4 C 3,9 C 92 % 1021,2 hPa 0,0 l/m 0 min 0 min 0 W/m 12,9 km/h (3 Bft) 95,74 %
15.02.2020 05:18 5,1 C 4,4 C 3,9 C 93 % 1021,2 hPa 0,0 l/m 0 min 0 min 0 W/m 16,1 km/h (3 Bft) 95,74 %
15.02.2020 05:20 5,1 C 4,4 C 3,9 C 93 % 1021,1 hPa 0,0 l/m 0 min 0 min 0 W/m 16,1 km/h (3 Bft) 95,65 %
15.02.2020 05:22 5,1 C 4,4 C 3,9 C 93 % 1021,0 hPa 0,0 l/m 0 min 0 min 0 W/m 12,9 km/h (3 Bft) 95,74 %
15.02.2020 05:24 5,1 C 4,4 C 3,9 C 93 % 1021,0 hPa 0,0 l/m 0 min 0 min 0 W/m 12,9 km/h (3 Bft) 95,74 %
15.02.2020 05:26 5,1 C 4,4 C 3,9 C 93 % 1021,0 hPa 0,0 l/m 0 min 0 min 0 W/m 6,4 km/h (2 Bft) 95,74 %
15.02.2020 05:28 5,1 C 4,4 C 3,9 C 93 % 1021,0 hPa 0,0 l/m 0 min 0 min 0 W/m 12,9 km/h (3 Bft) 95,74 %
15.02.2020 05:30 5,1 C 4,4 C 3,9 C 93 % 1020,9 hPa 0,0 l/m 0 min 0 min 0 W/m 12,9 km/h (3 Bft) 95,65 %
15.02.2020 05:32 5,1 C 4,4 C 3,9 C 93 % 1021,0 hPa 0,0 l/m 0 min 0 min 0 W/m 6,4 km/h (2 Bft) 93,62 %
15.02.2020 05:34 5,1 C 4,4 C 3,9 C 93 % 1020,9 hPa 0,0 l/m 0 min 0 min 0 W/m 3,2 km/h (1 Bft) 93,62 %
15.02.2020 05:36 5,1 C 4,4 C 3,9 C 93 % 1020,9 hPa 0,0 l/m 0 min 0 min 0 W/m 12,9 km/h (3 Bft) 97,87 %
15.02.2020 05:38 5,1 C 4,4 C 3,9 C 93 % 1020,8 hPa 0,0 l/m 0 min 0 min 0 W/m 19,3 km/h (3 Bft) 95,74 %
15.02.2020 05:40 5,1 C 4,4 C 3,9 C 93 % 1020,8 hPa 0,0 l/m 0 min 0 min 0 W/m 19,3 km/h (3 Bft) 95,74 %
15.02.2020 05:42 5,1 C 4,4 C 3,9 C 93 % 1020,8 hPa 0,0 l/m 0 min 0 min 0 W/m 16,1 km/h (3 Bft) 95,65 %
15.02.2020 05:44 5,1 C 4,4 C 3,9 C 93 % 1020,8 hPa 0,0 l/m 0 min 0 min 0 W/m 12,9 km/h (3 Bft) 95,74 %
15.02.2020 05:46 5,1 C 4,4 C 3,9 C 93 % 1020,8 hPa 0,0 l/m 0 min 0 min 0 W/m 12,9 km/h (3 Bft) 95,74 %
15.02.2020 05:48 5,1 C 4,4 C 3,9 C 93 % 1020,7 hPa 0,0 l/m 0 min 0 min 0 W/m 12,9 km/h (3 Bft) 97,87 %
15.02.2020 05:50 5,0 C 4,4 C 3,9 C 93 % 1020,7 hPa 0,0 l/m 0 min 0 min 0 W/m 19,3 km/h (3 Bft) 97,87 %
15.02.2020 05:52 5,0 C 4,4 C 3,9 C 93 % 1020,7 hPa 0,0 l/m 0 min 0 min 0 W/m 16,1 km/h (3 Bft) 95,74 %
15.02.2020 05:54 5,0 C 4,4 C 3,9 C 93 % 1020,6 hPa 0,0 l/m 0 min 0 min 0 W/m 16,1 km/h (3 Bft) 97,83 %
15.02.2020 05:56 5,0 C 4,4 C 3,9 C 93 % 1020,7 hPa 0,0 l/m 0 min 0 min 0 W/m 6,4 km/h (2 Bft) 97,87 %
15.02.2020 05:58 5,0 C 4,4 C 3,9 C 93 % 1020,6 hPa 0,0 l/m 0 min 0 min 0 W/m 16,1 km/h (3 Bft) 95,74 %
15.02.2020 06:00 5,0 C 4,4 C 3,9 C 93 % 1020,6 hPa 0,0 l/m 0 min 0 min 0 W/m 0,0 km/h (0 Bft) 95,74 %
15.02.2020 06:02 5,0 C 4,4 C 3,9 C 93 % 1020,5 hPa 0,0 l/m 0 min 0 min 0 W/m 0,0 km/h (0 Bft) 95,74 %
15.02.2020 06:04 5,0 C 4,4 C 3,9 C 93 % 1020,6 hPa 0,0 l/m 0 min 0 min 0 W/m 3,2 km/h (1 Bft) 97,87 %
15.02.2020 06:06 5,0 C 4,4 C 3,9 C 93 % 1020,5 hPa 0,0 l/m 0 min 0 min 0 W/m 0,0 km/h (0 Bft) 97,83 %
15.02.2020 06:08 5,0 C 4,4 C 3,9 C 93 % 1020,5 hPa 0,0 l/m 0 min 0 min 0 W/m 16,1 km/h (3 Bft) 95,74 %
15.02.2020 06:10 5,0 C 4,4 C 3,9 C 93 % 1020,5 hPa 0,0 l/m 0 min 0 min 0 W/m 6,4 km/h (2 Bft) 97,87 %
15.02.2020 06:12 5,0 C 4,4 C 3,9 C 93 % 1020,5 hPa 0,0 l/m 0 min 0 min 0 W/m 16,1 km/h (3 Bft) 95,74 %
15.02.2020 06:14 5,0 C 4,4 C 3,9 C 93 % 1020,5 hPa 0,0 l/m 0 min 0 min 0 W/m 16,1 km/h (3 Bft) 95,74 %
15.02.2020 06:16 5,1 C 4,4 C 3,9 C 93 % 1020,4 hPa 0,0 l/m 0 min 0 min 0 W/m 12,9 km/h (3 Bft) 95,74 %
15.02.2020 06:18 5,1 C 4,4 C 3,9 C 93 % 1020,4 hPa 0,0 l/m 0 min 0 min 0 W/m 12,9 km/h (3 Bft) 97,83 %
15.02.2020 06:20 5,1 C 4,4 C 3,9 C 93 % 1020,3 hPa 0,0 l/m 0 min 0 min 0 W/m 12,9 km/h (3 Bft) 97,87 %
15.02.2020 06:22 5,1 C 4,4 C 3,9 C 93 % 1020,4 hPa 0,0 l/m 0 min 0 min 0 W/m 16,1 km/h (3 Bft) 95,74 %
15.02.2020 06:24 5,1 C 4,4 C 3,9 C 93 % 1020,4 hPa 0,0 l/m 0 min 0 min 0 W/m 16,1 km/h (3 Bft) 95,74 %
15.02.2020 06:26 5,1 C 4,4 C 3,9 C 93 % 1020,4 hPa 0,0 l/m 0 min 0 min 0 W/m 19,3 km/h (3 Bft) 95,74 %
15.02.2020 06:28 5,1 C 4,4 C 3,9 C 93 % 1020,5 hPa 0,0 l/m 0 min 0 min 0 W/m 12,9 km/h (3 Bft) 97,83 %
15.02.2020 06:30 5,1 C 4,4 C 3,9 C 93 % 1020,4 hPa 0,0 l/m 0 min 0 min 0 W/m 16,1 km/h (3 Bft) 97,87 %
15.02.2020 06:32 5,1 C 4,4 C 3,9 C 93 % 1020,4 hPa 0,0 l/m 0 min 0 min 0 W/m 16,1 km/h (3 Bft) 95,74 %
15.02.2020 06:34 5,1 C 4,4 C 3,9 C 93 % 1020,5 hPa 0,0 l/m 0 min 0 min 0 W/m 19,3 km/h (3 Bft) 95,74 %
15.02.2020 06:36 5,2 C 4,4 C 3,9 C 93 % 1020,5 hPa 0,0 l/m 0 min 0 min 0 W/m 3,2 km/h (1 Bft) 97,87 %
15.02.2020 06:38 5,2 C 4,4 C 3,9 C 93 % 1020,4 hPa 0,0 l/m 0 min 0 min 0 W/m 12,9 km/h (3 Bft) 97,87 %
15.02.2020 06:40 5,2 C 4,4 C 3,9 C 94 % 1020,4 hPa 0,0 l/m 0 min 0 min 0 W/m 6,4 km/h (2 Bft) 97,83 %
15.02.2020 06:42 5,2 C 4,4 C 3,9 C 94 % 1020,4 hPa 0,0 l/m 0 min 0 min 0 W/m 12,9 km/h (3 Bft) 97,87 %
15.02.2020 06:44 5,2 C 5,0 C 3,9 C 94 % 1020,4 hPa 0,0 l/m 0 min 0 min 0 W/m 22,5 km/h (4 Bft) 97,87 %
15.02.2020 06:46 5,2 C 5,0 C 3,9 C 94 % 1020,4 hPa 0,0 l/m 0 min 0 min 0 W/m 12,9 km/h (3 Bft) 97,87 %
15.02.2020 06:48 5,2 C 5,0 C 3,9 C 94 % 1020,5 hPa 0,0 l/m 0 min 0 min 0 W/m 19,3 km/h (3 Bft) 97,87 %
15.02.2020 06:50 5,2 C 5,0 C 4,4 C 94 % 1020,5 hPa 0,0 l/m 0 min 0 min 0 W/m 16,1 km/h (3 Bft) 97,87 %
15.02.2020 06:52 5,3 C 5,0 C 4,4 C 94 % 1020,5 hPa 0,0 l/m 0 min 0 min 0 W/m 19,3 km/h (3 Bft) 97,83 %
15.02.2020 06:54 5,3 C 5,0 C 4,4 C 94 % 1020,5 hPa 0,0 l/m 0 min 0 min 0 W/m 16,1 km/h (3 Bft) 95,74 %
15.02.2020 06:56 5,3 C 5,0 C 4,4 C 94 % 1020,5 hPa 0,0 l/m 0 min 0 min 0 W/m 16,1 km/h (3 Bft) 97,87 %
15.02.2020 06:58 5,3 C 5,0 C 4,4 C 94 % 1020,5 hPa 0,0 l/m 0 min 0 min 0 W/m 16,1 km/h (3 Bft) 93,62 %
15.02.2020 07:00 5,3 C 5,0 C 4,4 C 94 % 1020,5 hPa 0,0 l/m 0 min 0 min 0 W/m 0,0 km/h (0 Bft) 100,00 %
15.02.2020 07:02 5,3 C 5,0 C 4,4 C 94 % 1020,5 hPa 0,0 l/m 0 min 0 min 0 W/m 16,1 km/h (3 Bft) 97,87 %
15.02.2020 07:04 5,3 C 5,0 C 4,4 C 94 % 1020,5 hPa 0,0 l/m 0 min 0 min 0 W/m 16,1 km/h (3 Bft) 100,00 %
15.02.2020 07:06 5,4 C 5,0 C 4,4 C 94 % 1020,5 hPa 0,0 l/m 0 min 0 min 0 W/m 16,1 km/h (3 Bft) 97,87 %
15.02.2020 07:08 5,4 C 5,0 C 4,4 C 94 % 1020,5 hPa 0,0 l/m 0 min 0 min 0 W/m 12,9 km/h (3 Bft) 100,00 %
15.02.2020 07:10 5,4 C 5,0 C 4,4 C 94 % 1020,6 hPa 0,0 l/m 0 min 0 min 0 W/m 19,3 km/h (3 Bft) 100,00 %
15.02.2020 07:12 5,4 C 5,0 C 4,4 C 94 % 1020,6 hPa 0,0 l/m 0 min 0 min 0 W/m 3,2 km/h (1 Bft) 100,00 %
15.02.2020 07:14 5,4 C 5,0 C 4,4 C 94 % 1020,6 hPa 0,0 l/m 0 min 0 min 0 W/m 3,2 km/h (1 Bft) 100,00 %
15.02.2020 07:16 5,4 C 5,0 C 4,4 C 94 % 1020,6 hPa 0,0 l/m 0 min 0 min 0 W/m 12,9 km/h (3 Bft) 97,83 %
15.02.2020 07:18 5,4 C 5,0 C 4,4 C 94 % 1020,6 hPa 0,0 l/m 0 min 0 min 0 W/m 6,4 km/h (2 Bft) 100,00 %
15.02.2020 07:20 5,4 C 5,0 C 4,4 C 94 % 1020,6 hPa 0,0 l/m 0 min 0 min 0 W/m 6,4 km/h (2 Bft) 97,87 %
15.02.2020 07:22 5,4 C 5,0 C 3,9 C 94 % 1020,6 hPa 0,0 l/m 0 min 0 min 0 W/m 0,0 km/h (0 Bft) 100,00 %
15.02.2020 07:24 5,4 C 5,0 C 3,9 C 94 % 1020,6 hPa 0,0 l/m 0 min 0 min 0 W/m 3,2 km/h (1 Bft) 100,00 %
15.02.2020 07:26 5,4 C 5,0 C 3,9 C 93 % 1020,6 hPa 0,0 l/m 0 min 0 min 0 W/m 0,0 km/h (0 Bft) 100,00 %
15.02.2020 07:28 5,4 C 5,0 C 3,9 C 94 % 1020,7 hPa 0,0 l/m 0 min 0 min 0 W/m 0,0 km/h (0 Bft) 100,00 %
15.02.2020 07:30 5,4 C 5,0 C 3,9 C 93 % 1020,6 hPa 0,0 l/m 0 min 0 min 0 W/m 16,1 km/h (3 Bft) 100,00 %
15.02.2020 07:32 5,4 C 5,0 C 3,9 C 93 % 1020,6 hPa 0,0 l/m 0 min 0 min 0 W/m 3,2 km/h (1 Bft) 100,00 %
15.02.2020 07:34 5,4 C 5,0 C 3,9 C 93 % 1020,6 hPa 0,0 l/m 0 min 0 min 0 W/m 0,0 km/h (0 Bft) 100,00 %
15.02.2020 07:36 5,4 C 4,4 C 3,9 C 93 % 1020,6 hPa 0,0 l/m 0 min 0 min 0 W/m 6,4 km/h (2 Bft) 97,87 %
15.02.2020 07:38 5,4 C 4,4 C 3,9 C 93 % 1020,6 hPa 0,0 l/m 0 min 0 min 0 W/m 3,2 km/h (1 Bft) 97,83 %
15.02.2020 07:40 5,4 C 4,4 C 3,9 C 93 % 1020,6 hPa 0,0 l/m 0 min 0 min 0 W/m 6,4 km/h (2 Bft) 97,87 %
15.02.2020 07:42 5,4 C 4,4 C 3,9 C 93 % 1020,5 hPa 0,0 l/m 0 min 0 min 0 W/m 16,1 km/h (3 Bft) 95,74 %
15.02.2020 07:44 5,4 C 4,4 C 3,9 C 93 % 1020,6 hPa 0,0 l/m 0 min 0 min 0 W/m 0,0 km/h (0 Bft) 97,87 %
15.02.2020 07:46 5,4 C 4,4 C 3,9 C 93 % 1020,6 hPa 0,0 l/m 0 min 0 min 0 W/m 0,0 km/h (0 Bft) 97,87 %
15.02.2020 07:48 5,3 C 4,4 C 3,9 C 93 % 1020,6 hPa 0,0 l/m 0 min 0 min 0 W/m 0,0 km/h (0 Bft) 97,87 %
15.02.2020 07:50 5,3 C 4,4 C 3,9 C 93 % 1020,5 hPa 0,0 l/m 0 min 0 min 0 W/m 16,1 km/h (3 Bft) 97,83 %
15.02.2020 07:52 5,3 C 4,4 C 3,9 C 93 % 1020,5 hPa 0,0 l/m 0 min 0 min 0 W/m 6,4 km/h (2 Bft) 95,74 %
15.02.2020 07:54 5,3 C 4,4 C 3,9 C 93 % 1020,6 hPa 0,0 l/m 0 min 0 min 0 W/m 6,4 km/h (2 Bft) 97,87 %
15.02.2020 07:56 5,3 C 4,4 C 3,9 C 93 % 1020,6 hPa 0,0 l/m 0 min 0 min 5 W/m 0,0 km/h (0 Bft) 97,87 %
15.02.2020 07:58 5,3 C 4,4 C 3,9 C 93 % 1020,6 hPa 0,0 l/m 0 min 0 min 6 W/m 16,1 km/h (3 Bft) 97,87 %
15.02.2020 08:00 5,3 C 4,4 C 3,9 C 93 % 1020,6 hPa 0,0 l/m 0 min 0 min 9 W/m 16,1 km/h (3 Bft) 95,74 %
15.02.2020 08:02 5,3 C 4,4 C 3,9 C 93 % 1020,6 hPa 0,0 l/m 0 min 0 min 10 W/m 12,9 km/h (3 Bft) 89,13 %
15.02.2020 08:04 5,3 C 4,4 C 3,9 C 93 % 1020,6 hPa 0,0 l/m 0 min 0 min 11 W/m 0,0 km/h (0 Bft) 57,89 %
15.02.2020 08:06 5,3 C 4,4 C 3,9 C 93 % 1020,6 hPa 0,0 l/m 0 min 0 min 12 W/m 6,4 km/h (2 Bft) 97,87 %
15.02.2020 08:08 5,3 C 4,4 C 3,9 C 93 % 1020,6 hPa 0,0 l/m 0 min 0 min 13 W/m 16,1 km/h (3 Bft) 97,87 %
15.02.2020 08:10 5,3 C 5,0 C 3,9 C 94 % 1020,6 hPa 0,0 l/m 0 min 0 min 14 W/m 19,3 km/h (3 Bft) 95,74 %
15.02.2020 08:12 5,3 C 5,0 C 3,9 C 94 % 1020,6 hPa 0,0 l/m 0 min 0 min 16 W/m 6,4 km/h (2 Bft) 97,87 %
15.02.2020 08:14 5,3 C 5,0 C 3,9 C 94 % 1020,5 hPa 0,0 l/m 0 min 0 min 18 W/m 12,9 km/h (3 Bft) 97,83 %
15.02.2020 08:16 5,3 C 5,0 C 3,9 C 94 % 1020,5 hPa 0,0 l/m 0 min 0 min 19 W/m 16,1 km/h (3 Bft) 97,87 %
15.02.2020 08:18 5,3 C 5,0 C 3,9 C 94 % 1020,6 hPa 0,0 l/m 0 min 0 min 21 W/m 16,1 km/h (3 Bft) 97,87 %
15.02.2020 08:20 5,3 C 5,0 C 4,4 C 94 % 1020,6 hPa 0,0 l/m 0 min 0 min 22 W/m 12,9 km/h (3 Bft) 97,87 %
15.02.2020 08:22 5,3 C 5,0 C 4,4 C 94 % 1020,5 hPa 0,0 l/m 0 min 0 min 23 W/m 3,2 km/h (1 Bft) 97,87 %
15.02.2020 08:24 5,3 C 5,0 C 4,4 C 94 % 1020,5 hPa 0,0 l/m 0 min 0 min 25 W/m 12,9 km/h (3 Bft) 97,83 %
15.02.2020 08:26 5,3 C 5,0 C 4,4 C 94 % 1020,5 hPa 0,0 l/m 0 min 0 min 26 W/m 0,0 km/h (0 Bft) 100,00 %
15.02.2020 08:28 5,3 C 5,0 C 4,4 C 94 % 1020,5 hPa 0,0 l/m 0 min 0 min 27 W/m 0,0 km/h (0 Bft) 100,00 %
15.02.2020 08:30 5,3 C 5,0 C 4,4 C 94 % 1020,6 hPa 0,0 l/m 0 min 0 min 30 W/m 0,0 km/h (0 Bft) 97,87 %
15.02.2020 08:32 5,3 C 5,0 C 4,4 C 94 % 1020,6 hPa 0,0 l/m 0 min 0 min 33 W/m 0,0 km/h (0 Bft) 95,74 %
15.02.2020 08:34 5,3 C 5,0 C 4,4 C 94 % 1020,6 hPa 0,0 l/m 0 min 0 min 34 W/m 3,2 km/h (1 Bft) 100,00 %
15.02.2020 08:36 5,3 C 5,0 C 4,4 C 94 % 1020,6 hPa 0,0 l/m 0 min 0 min 37 W/m 19,3 km/h (3 Bft) 100,00 %
15.02.2020 08:38 5,4 C 5,0 C 4,4 C 94 % 1020,5 hPa 0,0 l/m 0 min 0 min 39 W/m 16,1 km/h (3 Bft) 97,87 %
15.02.2020 08:40 5,4 C 5,0 C 4,4 C 94 % 1020,4 hPa 0,0 l/m 0 min 0 min 39 W/m 19,3 km/h (3 Bft) 100,00 %
15.02.2020 08:42 5,4 C 5,0 C 4,4 C 94 % 1020,4 hPa 0,0 l/m 0 min 0 min 39 W/m 22,5 km/h (4 Bft) 100,00 %
15.02.2020 08:44 5,4 C 5,6 C 4,4 C 94 % 1020,5 hPa 0,0 l/m 0 min 0 min 39 W/m 19,3 km/h (3 Bft) 95,74 %
15.02.2020 08:46 5,4 C 5,6 C 4,4 C 94 % 1020,5 hPa 0,0 l/m 0 min 0 min 40 W/m 16,1 km/h (3 Bft) 97,87 %
15.02.2020 08:48 5,5 C 5,6 C 4,4 C 94 % 1020,5 hPa 0,0 l/m 0 min 0 min 41 W/m 22,5 km/h (4 Bft) 89,13 %
15.02.2020 08:50 5,6 C 5,6 C 4,4 C 94 % 1020,5 hPa 0,0 l/m 0 min 0 min 42 W/m 12,9 km/h (3 Bft) 97,87 %
15.02.2020 08:52 5,6 C 5,6 C 5,0 C 94 % 1020,5 hPa 0,0 l/m 0 min 0 min 44 W/m 6,4 km/h (2 Bft) 97,87 %
15.02.2020 08:54 5,6 C 5,6 C 5,0 C 94 % 1020,5 hPa 0,0 l/m 0 min 0 min 44 W/m 3,2 km/h (1 Bft) 97,87 %
15.02.2020 08:56 5,6 C 5,6 C 5,0 C 94 % 1020,5 hPa 0,0 l/m 0 min 0 min 44 W/m 16,1 km/h (3 Bft) 97,87 %
15.02.2020 08:58 5,6 C 5,6 C 5,0 C 94 % 1020,5 hPa 0,0 l/m 0 min 0 min 46 W/m 19,3 km/h (3 Bft) 95,74 %
15.02.2020 09:00 5,6 C 5,6 C 5,0 C 94 % 1020,5 hPa 0,0 l/m 0 min 0 min 46 W/m 12,9 km/h (3 Bft) 97,83 %
15.02.2020 09:02 5,7 C 5,6 C 5,0 C 94 % 1020,5 hPa 0,0 l/m 0 min 0 min 47 W/m 3,2 km/h (1 Bft) 95,74 %
15.02.2020 09:04 5,7 C 5,6 C 5,0 C 94 % 1020,4 hPa 0,0 l/m 0 min 0 min 50 W/m 6,4 km/h (2 Bft) 95,74 %
15.02.2020 09:06 5,7 C 5,6 C 5,0 C 94 % 1020,3 hPa 0,0 l/m 0 min 0 min 53 W/m 16,1 km/h (3 Bft) 95,74 %
15.02.2020 09:08 5,7 C 5,6 C 5,0 C 94 % 1020,3 hPa 0,0 l/m 0 min 0 min 54 W/m 16,1 km/h (3 Bft) 93,62 %
15.02.2020 09:10 5,7 C 5,6 C 5,0 C 94 % 1020,3 hPa 0,0 l/m 0 min 0 min 56 W/m 12,9 km/h (3 Bft) 95,74 %
15.02.2020 09:12 5,8 C 5,6 C 5,0 C 93 % 1020,3 hPa 0,0 l/m 0 min 0 min 56 W/m 12,9 km/h (3 Bft) 95,65 %
15.02.2020 09:14 5,8 C 5,6 C 5,0 C 93 % 1020,2 hPa 0,0 l/m 0 min 0 min 56 W/m 16,1 km/h (3 Bft) 95,74 %
15.02.2020 09:16 5,8 C 5,6 C 5,0 C 93 % 1020,2 hPa 0,0 l/m 0 min 0 min 54 W/m 6,4 km/h (2 Bft) 95,74 %
15.02.2020 09:18 5,8 C 5,6 C 5,0 C 93 % 1020,3 hPa 0,0 l/m 0 min 0 min 53 W/m 19,3 km/h (3 Bft) 95,74 %
15.02.2020 09:20 5,8 C 5,6 C 5,0 C 93 % 1020,3 hPa 0,0 l/m 0 min 0 min 51 W/m 16,1 km/h (3 Bft) 95,74 %
15.02.2020 09:22 5,9 C 6,1 C 5,0 C 93 % 1020,3 hPa 0,0 l/m 0 min 0 min 51 W/m 22,5 km/h (4 Bft) 95,65 %
15.02.2020 09:24 5,9 C 6,1 C 5,0 C 93 % 1020,3 hPa 0,0 l/m 0 min 0 min 51 W/m 16,1 km/h (3 Bft) 95,74 %
15.02.2020 09:26 5,9 C 6,1 C 5,0 C 93 % 1020,3 hPa 0,0 l/m 0 min 0 min 54 W/m 16,1 km/h (3 Bft) 95,74 %
15.02.2020 09:28 5,9 C 6,1 C 5,0 C 93 % 1020,3 hPa 0,0 l/m 0 min 0 min 59 W/m 12,9 km/h (3 Bft) 95,74 %
15.02.2020 09:30 6,0 C 6,1 C 5,0 C 93 % 1020,2 hPa 0,0 l/m 0 min 0 min 66 W/m 22,5 km/h (4 Bft) 95,74 %
15.02.2020 09:32 6,0 C 6,1 C 5,0 C 93 % 1020,2 hPa 0,0 l/m 0 min 0 min 75 W/m 6,4 km/h (2 Bft) 95,74 %
15.02.2020 09:34 6,0 C 6,1 C 5,6 C 93 % 1020,2 hPa 0,0 l/m 0 min 0 min 84 W/m 19,3 km/h (3 Bft) 93,48 %
15.02.2020 09:36 6,1 C 6,1 C 5,6 C 93 % 1020,2 hPa 0,0 l/m 0 min 0 min 95 W/m 16,1 km/h (3 Bft) 95,74 %
15.02.2020 09:38 6,1 C 6,7 C 5,6 C 93 % 1020,2 hPa 0,0 l/m 0 min 0 min 105 W/m 19,3 km/h (3 Bft) 97,87 %
15.02.2020 09:40 6,1 C 6,7 C 5,6 C 93 % 1020,2 hPa 0,0 l/m 0 min 0 min 107 W/m 6,4 km/h (2 Bft) 95,74 %
15.02.2020 09:42 6,1 C 6,7 C 5,6 C 93 % 1020,1 hPa 0,0 l/m 0 min 0 min 118 W/m 19,3 km/h (3 Bft) 97,87 %
15.02.2020 09:44 6,2 C 7,2 C 6,1 C 93 % 1020,2 hPa 0,0 l/m 2 min 0 min 129 W/m 12,9 km/h (3 Bft) 97,87 %
15.02.2020 09:46 6,2 C 7,2 C 6,1 C 93 % 1020,2 hPa 0,0 l/m 2 min 0 min 141 W/m 16,1 km/h (3 Bft) 97,83 %
15.02.2020 09:48 6,3 C 7,2 C 6,1 C 93 % 1020,2 hPa 0,0 l/m 0 min 0 min 120 W/m 19,3 km/h (3 Bft) 97,87 %
15.02.2020 09:50 6,3 C 7,2 C 6,1 C 93 % 1020,1 hPa 0,0 l/m 2 min 0 min 133 W/m 22,5 km/h (4 Bft) 100,00 %
15.02.2020 09:52 6,4 C 7,8 C 6,1 C 93 % 1020,1 hPa 0,0 l/m 2 min 0 min 134 W/m 19,3 km/h (3 Bft) 100,00 %
15.02.2020 09:54 6,4 C 7,8 C 6,1 C 93 % 1020,1 hPa 0,0 l/m 2 min 0 min 145 W/m 12,9 km/h (3 Bft) 100,00 %
15.02.2020 09:56 6,5 C 8,3 C 6,1 C 93 % 1020,2 hPa 0,0 l/m 2 min 0 min 166 W/m 19,3 km/h (3 Bft) 100,00 %
15.02.2020 09:58 6,6 C 8,9 C 6,1 C 93 % 1020,1 hPa 0,0 l/m 2 min 0 min 194 W/m 16,1 km/h (3 Bft) 100,00 %
15.02.2020 10:00 6,6 C 9,4 C 6,7 C 93 % 1020,1 hPa 0,0 l/m 2 min 0 min 253 W/m 22,5 km/h (4 Bft) 100,00 %
15.02.2020 10:02 6,7 C 10,0 C 6,7 C 93 % 1020,1 hPa 0,0 l/m 2 min 0 min 281 W/m 19,3 km/h (3 Bft) 100,00 %
15.02.2020 10:04 6,8 C 10,6 C 6,7 C 93 % 1020,1 hPa 0,0 l/m 2 min 0 min 295 W/m 19,3 km/h (3 Bft) 97,87 %
15.02.2020 10:06 6,9 C 11,1 C 6,7 C 93 % 1020,1 hPa 0,0 l/m 2 min 0 min 300 W/m 16,1 km/h (3 Bft) 100,00 %
15.02.2020 10:08 7,1 C 11,1 C 6,7 C 93 % 1020,0 hPa 0,0 l/m 2 min 0 min 303 W/m 22,5 km/h (4 Bft) 97,87 %
15.02.2020 10:10 7,2 C 11,1 C 6,7 C 93 % 1020,0 hPa 0,0 l/m 2 min 0 min 305 W/m 22,5 km/h (4 Bft) 97,83 %
15.02.2020 10:12 7,3 C 10,6 C 6,7 C 93 % 1019,9 hPa 0,0 l/m 2 min 0 min 301 W/m 25,7 km/h (4 Bft) 95,74 %
15.02.2020 10:14 7,4 C 10,6 C 6,7 C 92 % 1019,9 hPa 0,0 l/m 2 min 0 min 262 W/m 22,5 km/h (4 Bft) 97,87 %
15.02.2020 10:16 7,6 C 11,1 C 7,2 C 92 % 1019,8 hPa 0,0 l/m 2 min 0 min 288 W/m 22,5 km/h (4 Bft) 95,74 %
15.02.2020 10:18 7,6 C 10,6 C 7,2 C 91 % 1019,8 hPa 0,0 l/m 2 min 0 min 255 W/m 19,3 km/h (3 Bft) 97,87 %
15.02.2020 10:20 7,7 C 10,6 C 7,2 C 91 % 1019,7 hPa 0,0 l/m 2 min 0 min 248 W/m 16,1 km/h (3 Bft) 97,87 %
15.02.2020 10:22 7,8 C 11,1 C 7,2 C 91 % 1019,7 hPa 0,0 l/m 2 min 0 min 304 W/m 16,1 km/h (3 Bft) 95,65 %
15.02.2020 10:24 7,9 C 11,1 C 7,2 C 90 % 1019,7 hPa 0,0 l/m 2 min 0 min 302 W/m 22,5 km/h (4 Bft) 95,74 %
15.02.2020 10:26 8,0 C 11,1 C 7,2 C 90 % 1019,7 hPa 0,0 l/m 2 min 0 min 317 W/m 22,5 km/h (4 Bft) 97,87 %
15.02.2020 10:28 8,1 C 11,7 C 7,2 C 90 % 1019,8 hPa 0,0 l/m 2 min 0 min 319 W/m 19,3 km/h (3 Bft) 95,74 %
15.02.2020 10:30 8,2 C 11,7 C 7,2 C 89 % 1019,8 hPa 0,0 l/m 2 min 0 min 315 W/m 19,3 km/h (3 Bft) 97,87 %
15.02.2020 10:32 8,3 C 12,2 C 7,2 C 89 % 1019,8 hPa 0,0 l/m 2 min 0 min 320 W/m 29,0 km/h (5 Bft) 97,83 %
15.02.2020 10:34 8,4 C 11,7 C 7,8 C 89 % 1019,8 hPa 0,0 l/m 2 min 0 min 316 W/m 22,5 km/h (4 Bft) 97,87 %
15.02.2020 10:36 8,5 C 12,2 C 7,8 C 89 % 1019,8 hPa 0,0 l/m 2 min 0 min 295 W/m 16,1 km/h (3 Bft) 97,87 %
15.02.2020 10:38 8,6 C 12,8 C 7,8 C 88 % 1019,8 hPa 0,0 l/m 2 min 0 min 299 W/m 16,1 km/h (3 Bft) 97,87 %
15.02.2020 10:40 8,7 C 12,8 C 7,8 C 88 % 1019,8 hPa 0,0 l/m 2 min 0 min 319 W/m 22,5 km/h (4 Bft) 97,87 %
15.02.2020 10:42 8,8 C 12,2 C 7,8 C 88 % 1019,7 hPa 0,0 l/m 2 min 0 min 325 W/m 25,7 km/h (4 Bft) 97,87 %
15.02.2020 10:44 8,8 C 12,2 C 7,8 C 87 % 1019,7 hPa 0,0 l/m 2 min 0 min 333 W/m 19,3 km/h (3 Bft) 100,00 %
15.02.2020 10:46 8,9 C 12,2 C 7,8 C 87 % 1019,6 hPa 0,0 l/m 2 min 0 min 338 W/m 29,0 km/h (5 Bft) 97,87 %
15.02.2020 10:48 8,9 C 11,7 C 7,8 C 86 % 1019,6 hPa 0,0 l/m 2 min 0 min 342 W/m 29,0 km/h (5 Bft) 100,00 %
15.02.2020 10:50 9,1 C 12,2 C 7,8 C 86 % 1019,6 hPa 0,0 l/m 2 min 0 min 361 W/m 22,5 km/h (4 Bft) 100,00 %
15.02.2020 10:52 9,1 C 12,8 C 7,8 C 86 % 1019,5 hPa 0,0 l/m 2 min 0 min 373 W/m 22,5 km/h (4 Bft) 100,00 %
15.02.2020 10:54 9,2 C 12,8 C 8,3 C 86 % 1019,5 hPa 0,0 l/m 2 min 0 min 372 W/m 22,5 km/h (4 Bft) 100,00 %
15.02.2020 10:56 9,3 C 12,2 C 7,8 C 86 % 1019,5 hPa 0,0 l/m 2 min 0 min 362 W/m 25,7 km/h (4 Bft) 100,00 %
15.02.2020 10:58 9,4 C 12,8 C 8,3 C 86 % 1019,4 hPa 0,0 l/m 2 min 0 min 370 W/m 22,5 km/h (4 Bft) 100,00 %
15.02.2020 11:00 9,4 C 12,8 C 8,3 C 85 % 1019,4 hPa 0,0 l/m 2 min 0 min 377 W/m 25,7 km/h (4 Bft) 100,00 %
15.02.2020 11:02 9,6 C 12,8 C 8,3 C 85 % 1019,4 hPa 0,0 l/m 2 min 0 min 366 W/m 25,7 km/h (4 Bft) 100,00 %
15.02.2020 11:04 9,6 C 12,8 C 8,3 C 85 % 1019,3 hPa 0,0 l/m 2 min 0 min 357 W/m 16,1 km/h (3 Bft) 100,00 %
15.02.2020 11:06 9,7 C 13,3 C 8,9 C 85 % 1019,4 hPa 0,0 l/m 2 min 0 min 332 W/m 22,5 km/h (4 Bft) 100,00 %
15.02.2020 11:08 9,8 C 13,3 C 8,9 C 85 % 1019,4 hPa 0,0 l/m 2 min 0 min 355 W/m 25,7 km/h (4 Bft) 100,00 %
15.02.2020 11:10 9,9 C 13,3 C 9,4 C 85 % 1019,4 hPa 0,0 l/m 2 min 0 min 346 W/m 22,5 km/h (4 Bft) 100,00 %
15.02.2020 11:12 10,1 C 13,9 C 9,4 C 85 % 1019,3 hPa 0,0 l/m 2 min 0 min 334 W/m 19,3 km/h (3 Bft) 100,00 %
15.02.2020 11:14 10,2 C 13,3 C 9,4 C 85 % 1019,3 hPa 0,0 l/m 2 min 0 min 325 W/m 32,2 km/h (5 Bft) 100,00 %
15.02.2020 11:16 10,3 C 12,8 C 9,4 C 84 % 1019,3 hPa 0,0 l/m 2 min 0 min 357 W/m 25,7 km/h (4 Bft) 100,00 %
15.02.2020 11:18 10,4 C 13,3 C 9,4 C 84 % 1019,2 hPa 0,0 l/m 2 min 0 min 355 W/m 22,5 km/h (4 Bft) 100,00 %
15.02.2020 11:20 10,6 C 13,3 C 10,0 C 84 % 1019,2 hPa 0,2 l/m 2 min 0 min 385 W/m 32,2 km/h (5 Bft) 97,83 %
15.02.2020 11:22 10,6 C 13,3 C 10,0 C 83 % 1019,2 hPa 0,0 l/m 2 min 0 min 394 W/m 29,0 km/h (5 Bft) 97,87 %
15.02.2020 11:24 10,7 C 14,4 C 10,0 C 83 % 1019,2 hPa 0,0 l/m 2 min 0 min 388 W/m 22,5 km/h (4 Bft) 97,87 %
15.02.2020 11:26 10,8 C 14,4 C 10,0 C 83 % 1019,2 hPa 0,0 l/m 2 min 0 min 390 W/m 22,5 km/h (4 Bft) 97,87 %
15.02.2020 11:28 11,0 C 15,0 C 10,0 C 83 % 1019,2 hPa 0,0 l/m 2 min 0 min 392 W/m 29,0 km/h (5 Bft) 95,74 %
15.02.2020 11:30 11,1 C 15,0 C 10,0 C 82 % 1019,1 hPa 0,0 l/m 2 min 0 min 411 W/m 22,5 km/h (4 Bft) 97,83 %
15.02.2020 11:32 11,2 C 15,0 C 10,6 C 82 % 1019,1 hPa 0,0 l/m 2 min 0 min 417 W/m 25,7 km/h (4 Bft) 95,74 %
15.02.2020 11:34 11,3 C 14,4 C 10,6 C 81 % 1019,2 hPa 0,0 l/m 2 min 0 min 420 W/m 22,5 km/h (4 Bft) 97,87 %
15.02.2020 11:36 11,4 C 13,9 C 10,6 C 81 % 1019,2 hPa 0,0 l/m 2 min 0 min 409 W/m 41,8 km/h (6 Bft) 97,87 %
15.02.2020 11:38 11,5 C 14,4 C 10,6 C 80 % 1019,1 hPa 0,0 l/m 2 min 0 min 416 W/m 29,0 km/h (5 Bft) 97,87 %
15.02.2020 11:40 11,6 C 13,9 C 10,6 C 80 % 1019,1 hPa 0,0 l/m 2 min 0 min 419 W/m 38,6 km/h (5 Bft) 97,87 %
15.02.2020 11:42 11,7 C 15,6 C 10,6 C 79 % 1019,1 hPa 0,0 l/m 2 min 0 min 420 W/m 25,7 km/h (4 Bft) 97,83 %
15.02.2020 11:44 11,7 C 15,0 C 10,6 C 79 % 1019,1 hPa 0,0 l/m 2 min 0 min 427 W/m 32,2 km/h (5 Bft) 97,87 %
15.02.2020 11:46 11,8 C 15,0 C 10,6 C 79 % 1019,1 hPa 0,0 l/m 2 min 0 min 430 W/m 35,4 km/h (5 Bft) 97,87 %
15.02.2020 11:48 11,8 C 14,4 C 10,6 C 78 % 1019,1 hPa 0,0 l/m 2 min 0 min 440 W/m 35,4 km/h (5 Bft) 97,87 %
15.02.2020 11:50 11,9 C 15,0 C 10,6 C 78 % 1019,1 hPa 0,0 l/m 2 min 0 min 445 W/m 29,0 km/h (5 Bft) 95,74 %
15.02.2020 11:52 11,9 C 15,0 C 11,1 C 78 % 1019,0 hPa 0,0 l/m 2 min 0 min 445 W/m 41,8 km/h (6 Bft) 95,74 %
15.02.2020 11:54 12,0 C 15,0 C 11,1 C 78 % 1019,1 hPa 0,0 l/m 2 min 0 min 435 W/m 35,4 km/h (5 Bft) 95,65 %
15.02.2020 11:56 12,1 C 15,6 C 11,1 C 78 % 1019,1 hPa 0,0 l/m 2 min 0 min 449 W/m 29,0 km/h (5 Bft) 97,87 %
15.02.2020 11:58 12,1 C 15,0 C 11,1 C 78 % 1019,1 hPa 0,0 l/m 2 min 0 min 428 W/m 29,0 km/h (5 Bft) 97,87 %
15.02.2020 12:00 12,2 C 15,6 C 11,1 C 77 % 1019,0 hPa 0,0 l/m 2 min 0 min 445 W/m 32,2 km/h (5 Bft) 100,00 %
15.02.2020 12:02 12,3 C 15,6 C 11,1 C 77 % 1018,9 hPa 0,0 l/m 2 min 0 min 447 W/m 25,7 km/h (4 Bft) 97,87 %
15.02.2020 12:04 12,3 C 16,1 C 11,1 C 77 % 1018,8 hPa 0,0 l/m 2 min 0 min 451 W/m 35,4 km/h (5 Bft) 97,87 %
15.02.2020 12:06 12,4 C 15,6 C 11,1 C 77 % 1018,9 hPa 0,0 l/m 2 min 0 min 446 W/m 38,6 km/h (5 Bft) 100,00 %
15.02.2020 12:08 12,4 C 16,1 C 11,7 C 77 % 1018,8 hPa 0,0 l/m 2 min 0 min 457 W/m 25,7 km/h (4 Bft) 100,00 %
15.02.2020 12:10 12,5 C 15,6 C 11,7 C 76 % 1018,7 hPa 0,0 l/m 2 min 0 min 452 W/m 32,2 km/h (5 Bft) 100,00 %
15.02.2020 12:12 12,6 C 15,6 C 11,7 C 76 % 1018,6 hPa 0,0 l/m 2 min 0 min 463 W/m 32,2 km/h (5 Bft) 95,74 %
15.02.2020 12:14 12,6 C 15,6 C 11,7 C 76 % 1018,6 hPa 0,0 l/m 2 min 0 min 462 W/m 32,2 km/h (5 Bft) 97,87 %
15.02.2020 12:16 12,6 C 15,0 C 11,1 C 75 % 1018,6 hPa 0,0 l/m 2 min 0 min 466 W/m 35,4 km/h (5 Bft) 97,87 %
15.02.2020 12:18 12,6 C 15,0 C 11,7 C 75 % 1018,5 hPa 0,0 l/m 2 min 0 min 468 W/m 41,8 km/h (6 Bft) 97,83 %
15.02.2020 12:20 12,6 C 15,0 C 11,1 C 75 % 1018,5 hPa 0,0 l/m 2 min 0 min 468 W/m 35,4 km/h (5 Bft) 95,74 %
15.02.2020 12:22 12,6 C 15,6 C 11,7 C 75 % 1018,4 hPa 0,0 l/m 2 min 0 min 474 W/m 29,0 km/h (5 Bft) 97,87 %
15.02.2020 12:24 12,7 C 15,6 C 11,7 C 75 % 1018,4 hPa 0,0 l/m 2 min 0 min 476 W/m 38,6 km/h (5 Bft) 97,87 %
15.02.2020 12:26 12,7 C 16,1 C 11,7 C 75 % 1018,4 hPa 0,0 l/m 2 min 0 min 479 W/m 35,4 km/h (5 Bft) 97,87 %
15.02.2020 12:28 12,7 C 15,6 C 11,7 C 75 % 1018,4 hPa 0,0 l/m 2 min 0 min 461 W/m 32,2 km/h (5 Bft) 97,87 %
15.02.2020 12:30 12,8 C 16,1 C 11,7 C 75 % 1018,3 hPa 0,0 l/m 2 min 0 min 435 W/m 25,7 km/h (4 Bft) 95,65 %
15.02.2020 12:32 12,8 C 15,6 C 11,7 C 75 % 1018,3 hPa 0,0 l/m 2 min 0 min 431 W/m 35,4 km/h (5 Bft) 97,87 %
15.02.2020 12:34 12,8 C 13,9 C 11,7 C 74 % 1018,2 hPa 0,0 l/m 2 min 0 min 359 W/m 41,8 km/h (6 Bft) 97,87 %
15.02.2020 12:36 12,8 C 13,3 C 11,7 C 74 % 1018,2 hPa 0,0 l/m 0 min 0 min 184 W/m 22,5 km/h (4 Bft) 97,87 %
15.02.2020 12:38 12,7 C 12,8 C 11,7 C 75 % 1018,2 hPa 0,0 l/m 2 min 0 min 274 W/m 32,2 km/h (5 Bft) 95,74 %
15.02.2020 12:40 12,7 C 13,9 C 12,2 C 75 % 1018,2 hPa 0,0 l/m 2 min 0 min 258 W/m 29,0 km/h (5 Bft) 97,87 %
15.02.2020 12:42 12,7 C 14,4 C 13,3 C 75 % 1018,0 hPa 0,0 l/m 2 min 0 min 326 W/m 25,7 km/h (4 Bft) 97,83 %
15.02.2020 12:44 12,7 C 14,4 C 13,9 C 75 % 1018,0 hPa 0,0 l/m 2 min 0 min 411 W/m 35,4 km/h (5 Bft) 97,87 %
15.02.2020 12:46 12,7 C 14,4 C 14,4 C 75 % 1017,9 hPa 0,0 l/m 2 min 0 min 393 W/m 22,5 km/h (4 Bft) 97,87 %
15.02.2020 12:48 12,7 C 13,9 C 13,9 C 75 % 1017,8 hPa 0,0 l/m 2 min 0 min 336 W/m 29,0 km/h (5 Bft) 95,74 %
15.02.2020 12:50 12,7 C 13,3 C 12,8 C 74 % 1017,8 hPa 0,0 l/m 2 min 0 min 229 W/m 29,0 km/h (5 Bft) 100,00 %
15.02.2020 12:52 12,7 C 13,9 C 13,9 C 74 % 1017,8 hPa 0,0 l/m 2 min 0 min 299 W/m 35,4 km/h (5 Bft) 100,00 %
15.02.2020 12:54 12,7 C 14,4 C 13,9 C 74 % 1017,7 hPa 0,0 l/m 2 min 0 min 373 W/m 25,7 km/h (4 Bft) 100,00 %
15.02.2020 12:56 12,7 C 13,3 C 13,3 C 75 % 1017,7 hPa 0,0 l/m 2 min 0 min 244 W/m 25,7 km/h (4 Bft) 100,00 %
15.02.2020 12:58 12,7 C 12,8 C 12,8 C 74 % 1017,6 hPa 0,0 l/m 0 min 0 min 195 W/m 51,5 km/h (7 Bft) 100,00 %
15.02.2020 13:00 12,6 C 13,9 C 13,3 C 74 % 1017,5 hPa 0,0 l/m 2 min 0 min 223 W/m 25,7 km/h (4 Bft) 100,00 %
15.02.2020 13:02 12,7 C 15,0 C 15,0 C 74 % 1017,6 hPa 0,0 l/m 2 min 0 min 478 W/m 45,1 km/h (6 Bft) 100,00 %
15.02.2020 13:04 12,7 C 15,6 C 15,0 C 74 % 1017,5 hPa 0,0 l/m 2 min 0 min 500 W/m 45,1 km/h (6 Bft) 100,00 %
15.02.2020 13:06 12,7 C 16,1 C 16,1 C 74 % 1017,5 hPa 0,0 l/m 2 min 0 min 495 W/m 25,7 km/h (4 Bft) 100,00 %
15.02.2020 13:08 12,8 C 15,6 C 15,6 C 74 % 1017,5 hPa 0,0 l/m 2 min 0 min 437 W/m 25,7 km/h (4 Bft) 100,00 %
15.02.2020 13:10 12,9 C 15,6 C 15,6 C 74 % 1017,5 hPa 0,0 l/m 2 min 0 min 487 W/m 29,0 km/h (5 Bft) 100,00 %
15.02.2020 13:12 12,9 C 15,0 C 15,0 C 74 % 1017,5 hPa 0,0 l/m 2 min 0 min 489 W/m 32,2 km/h (5 Bft) 100,00 %
15.02.2020 13:14 13,0 C 15,6 C 14,4 C 73 % 1017,4 hPa 0,0 l/m 2 min 0 min 439 W/m 29,0 km/h (5 Bft) 100,00 %
15.02.2020 13:16 13,1 C 15,0 C 13,9 C 73 % 1017,4 hPa 0,0 l/m 2 min 0 min 492 W/m 32,2 km/h (5 Bft) 100,00 %
15.02.2020 13:18 13,1 C 14,4 C 13,3 C 73 % 1017,3 hPa 0,0 l/m 2 min 0 min 362 W/m 19,3 km/h (3 Bft) 100,00 %
15.02.2020 13:20 13,1 C 14,4 C 12,8 C 73 % 1017,3 hPa 0,0 l/m 2 min 0 min 308 W/m 35,4 km/h (5 Bft) 100,00 %
15.02.2020 13:22 13,1 C 14,4 C 12,8 C 73 % 1017,3 hPa 0,0 l/m 2 min 0 min 377 W/m 29,0 km/h (5 Bft) 100,00 %
15.02.2020 13:24 13,1 C 15,0 C 12,8 C 72 % 1017,2 hPa 0,0 l/m 2 min 0 min 312 W/m 35,4 km/h (5 Bft) 97,87 %
15.02.2020 13:26 13,1 C 15,6 C 12,8 C 72 % 1017,2 hPa 0,0 l/m 2 min 0 min 462 W/m 35,4 km/h (5 Bft) 100,00 %
15.02.2020 13:28 13,2 C 15,0 C 12,8 C 72 % 1017,3 hPa 0,0 l/m 2 min 0 min 455 W/m 32,2 km/h (5 Bft) 97,83 %
15.02.2020 13:30 13,2 C 15,6 C 12,2 C 72 % 1017,2 hPa 0,0 l/m 2 min 0 min 449 W/m 38,6 km/h (5 Bft) 100,00 %
15.02.2020 13:32 13,2 C 15,0 C 12,2 C 72 % 1017,1 hPa 0,0 l/m 2 min 0 min 401 W/m 32,2 km/h (5 Bft) 100,00 %
15.02.2020 13:34 13,2 C 15,6 C 12,2 C 71 % 1017,1 hPa 0,0 l/m 2 min 0 min 389 W/m 29,0 km/h (5 Bft) 100,00 %
15.02.2020 13:36 13,2 C 15,6 C 12,2 C 72 % 1017,2 hPa 0,0 l/m 2 min 0 min 445 W/m 29,0 km/h (5 Bft) 97,87 %
15.02.2020 13:38 13,2 C 15,6 C 12,2 C 71 % 1017,2 hPa 0,0 l/m 2 min 0 min 452 W/m 38,6 km/h (5 Bft) 97,83 %
15.02.2020 13:40 13,3 C 15,6 C 12,2 C 71 % 1017,1 hPa 0,0 l/m 2 min 0 min 421 W/m 29,0 km/h (5 Bft) 100,00 %
15.02.2020 13:42 13,3 C 13,9 C 12,2 C 71 % 1017,1 hPa 0,0 l/m 2 min 0 min 241 W/m 32,2 km/h (5 Bft) 100,00 %
15.02.2020 13:44 13,3 C 13,3 C 12,2 C 71 % 1017,1 hPa 0,0 l/m 0 min 0 min 143 W/m 29,0 km/h (5 Bft) 95,74 %
15.02.2020 13:46 13,3 C 13,9 C 12,2 C 71 % 1017,1 hPa 0,0 l/m 2 min 0 min 233 W/m 22,5 km/h (4 Bft) 93,62 %
15.02.2020 13:48 13,2 C 14,4 C 12,2 C 71 % 1017,0 hPa 0,0 l/m 2 min 0 min 263 W/m 32,2 km/h (5 Bft) 100,00 %
15.02.2020 13:50 13,2 C 14,4 C 12,2 C 70 % 1017,1 hPa 0,0 l/m 2 min 0 min 435 W/m 38,6 km/h (5 Bft) 100,00 %
15.02.2020 13:52 13,2 C 15,0 C 12,8 C 71 % 1017,0 hPa 0,0 l/m 2 min 0 min 478 W/m 32,2 km/h (5 Bft) 100,00 %
15.02.2020 13:54 13,2 C 14,4 C 12,8 C 70 % 1017,1 hPa 0,0 l/m 2 min 0 min 274 W/m 35,4 km/h (5 Bft) 97,87 %
15.02.2020 13:56 13,3 C 14,4 C 12,8 C 71 % 1017,1 hPa 0,0 l/m 2 min 0 min 294 W/m 32,2 km/h (5 Bft) 95,74 %
15.02.2020 13:58 13,3 C 15,6 C 12,8 C 71 % 1017,2 hPa 0,0 l/m 2 min 0 min 304 W/m 29,0 km/h (5 Bft) 95,74 %
15.02.2020 14:00 13,4 C 15,6 C 12,8 C 71 % 1017,1 hPa 0,0 l/m 2 min 0 min 311 W/m 25,7 km/h (4 Bft) 97,87 %
15.02.2020 14:02 13,4 C 16,7 C 13,3 C 71 % 1017,1 hPa 0,0 l/m 2 min 0 min 401 W/m 32,2 km/h (5 Bft) 95,65 %
15.02.2020 14:04 13,5 C 16,7 C 13,3 C 71 % 1017,2 hPa 0,0 l/m 2 min 0 min 419 W/m 32,2 km/h (5 Bft) 95,45 %
15.02.2020 14:06 13,6 C 14,4 C 13,3 C 71 % 1017,2 hPa 0,0 l/m 2 min 0 min 366 W/m 35,4 km/h (5 Bft) 97,87 %
15.02.2020 14:08 13,6 C 14,4 C 12,8 C 71 % 1017,1 hPa 0,0 l/m 2 min 0 min 227 W/m 22,5 km/h (4 Bft) 97,87 %
15.02.2020 14:10 13,6 C 13,9 C 12,8 C 70 % 1017,1 hPa 0,0 l/m 2 min 0 min 240 W/m 32,2 km/h (5 Bft) 95,65 %
15.02.2020 14:12 13,6 C 13,9 C 12,8 C 70 % 1017,1 hPa 0,0 l/m 2 min 0 min 246 W/m 38,6 km/h (5 Bft) 93,62 %
15.02.2020 14:14 13,6 C 13,9 C 12,8 C 70 % 1017,1 hPa 0,0 l/m 2 min 0 min 204 W/m 35,4 km/h (5 Bft) 95,74 %
15.02.2020 14:16 13,6 C 13,9 C 12,8 C 70 % 1017,0 hPa 0,0 l/m 0 min 0 min 195 W/m 35,4 km/h (5 Bft) 95,74 %
15.02.2020 14:18 13,6 C 13,3 C 12,8 C 70 % 1017,0 hPa 0,0 l/m 2 min 0 min 212 W/m 29,0 km/h (5 Bft) 95,74 %
15.02.2020 14:20 13,6 C 13,9 C 12,8 C 70 % 1017,1 hPa 0,0 l/m 2 min 0 min 278 W/m 38,6 km/h (5 Bft) 95,74 %
15.02.2020 14:22 13,6 C 13,9 C 12,8 C 69 % 1017,0 hPa 0,0 l/m 2 min 0 min 262 W/m 38,6 km/h (5 Bft) 95,65 %
15.02.2020 14:24 13,5 C 14,4 C 12,8 C 69 % 1016,9 hPa 0,0 l/m 2 min 0 min 240 W/m 32,2 km/h (5 Bft) 95,74 %
15.02.2020 14:26 13,5 C 14,4 C 12,8 C 70 % 1016,9 hPa 0,0 l/m 2 min 0 min 260 W/m 29,0 km/h (5 Bft) 95,74 %
15.02.2020 14:28 13,6 C 15,0 C 12,8 C 70 % 1017,1 hPa 0,0 l/m 2 min 0 min 294 W/m 22,5 km/h (4 Bft) 96,00 %
15.02.2020 14:30 13,6 C 15,0 C 13,3 C 70 % 1017,0 hPa 0,0 l/m 2 min 0 min 236 W/m 19,3 km/h (3 Bft) 93,62 %
15.02.2020 14:32 13,6 C 15,0 C 13,3 C 71 % 1016,9 hPa 0,0 l/m 2 min 0 min 249 W/m 19,3 km/h (3 Bft) 93,62 %
15.02.2020 14:34 13,6 C 16,1 C 13,3 C 70 % 1016,8 hPa 0,0 l/m 2 min 0 min 283 W/m 29,0 km/h (5 Bft) 95,65 %
15.02.2020 14:36 13,7 C 14,4 C 13,3 C 70 % 1016,9 hPa 0,0 l/m 2 min 0 min 228 W/m 35,4 km/h (5 Bft) 95,74 %
15.02.2020 14:38 13,7 C 13,9 C 12,8 C 69 % 1016,9 hPa 0,0 l/m 2 min 0 min 192 W/m 45,1 km/h (6 Bft) 93,62 %
15.02.2020 14:40 13,7 C 13,9 C 12,8 C 70 % 1016,9 hPa 0,0 l/m 2 min 0 min 201 W/m 41,8 km/h (6 Bft) 91,49 %
15.02.2020 14:42 13,7 C 13,9 C 12,8 C 70 % 1016,9 hPa 0,0 l/m 2 min 0 min 194 W/m 41,8 km/h (6 Bft) 93,62 %
15.02.2020 14:44 13,7 C 13,3 C 12,8 C 70 % 1016,8 hPa 0,0 l/m 2 min 0 min 185 W/m 38,6 km/h (5 Bft) 95,74 %
15.02.2020 14:46 13,6 C 13,3 C 12,8 C 70 % 1016,8 hPa 0,0 l/m 0 min 0 min 173 W/m 29,0 km/h (5 Bft) 95,65 %
15.02.2020 14:48 13,6 C 13,3 C 12,8 C 70 % 1016,8 hPa 0,0 l/m 0 min 0 min 171 W/m 41,8 km/h (6 Bft) 93,62 %
15.02.2020 14:50 13,6 C 13,3 C 12,8 C 71 % 1016,8 hPa 0,0 l/m 0 min 0 min 165 W/m 22,5 km/h (4 Bft) 95,74 %
15.02.2020 14:52 13,6 C 13,3 C 12,8 C 71 % 1016,7 hPa 0,0 l/m 0 min 0 min 149 W/m 35,4 km/h (5 Bft) 95,74 %
15.02.2020 14:54 13,6 C 12,8 C 12,8 C 70 % 1016,8 hPa 0,0 l/m 0 min 0 min 148 W/m 35,4 km/h (5 Bft) 95,74 %
15.02.2020 14:56 13,5 C 13,3 C 12,8 C 70 % 1016,7 hPa 0,0 l/m 0 min 0 min 140 W/m 22,5 km/h (4 Bft) 95,65 %
15.02.2020 14:58 13,5 C 13,3 C 12,2 C 71 % 1016,6 hPa 0,0 l/m 0 min 0 min 152 W/m 35,4 km/h (5 Bft) 95,74 %
15.02.2020 15:00 13,4 C 13,9 C 12,2 C 71 % 1016,5 hPa 0,0 l/m 0 min 0 min 168 W/m 35,4 km/h (5 Bft) 95,74 %
15.02.2020 15:02 13,4 C 13,9 C 12,8 C 71 % 1016,4 hPa 0,0 l/m 0 min 0 min 169 W/m 25,7 km/h (4 Bft) 89,36 %
15.02.2020 15:04 13,4 C 15,0 C 12,8 C 71 % 1016,4 hPa 0,0 l/m 2 min 0 min 251 W/m 35,4 km/h (5 Bft) 95,74 %
15.02.2020 15:06 13,5 C 14,4 C 12,8 C 71 % 1016,4 hPa 0,0 l/m 2 min 0 min 348 W/m 35,4 km/h (5 Bft) 93,62 %
15.02.2020 15:08 13,5 C 14,4 C 12,8 C 71 % 1016,4 hPa 0,0 l/m 2 min 0 min 348 W/m 25,7 km/h (4 Bft) 97,83 %
15.02.2020 15:10 13,6 C 14,4 C 12,8 C 71 % 1016,4 hPa 0,0 l/m 2 min 0 min 330 W/m 29,0 km/h (5 Bft) 97,87 %
15.02.2020 15:12 13,6 C 15,0 C 12,8 C 72 % 1016,4 hPa 0,0 l/m 2 min 0 min 259 W/m 25,7 km/h (4 Bft) 97,87 %
15.02.2020 15:14 13,6 C 14,4 C 12,8 C 72 % 1016,4 hPa 0,0 l/m 2 min 0 min 281 W/m 25,7 km/h (4 Bft) 97,87 %
15.02.2020 15:16 13,6 C 13,9 C 12,8 C 72 % 1016,5 hPa 0,0 l/m 0 min 0 min 126 W/m 32,2 km/h (5 Bft) 97,87 %
15.02.2020 15:18 13,6 C 13,3 C 12,8 C 71 % 1016,5 hPa 0,0 l/m 0 min 0 min 116 W/m 35,4 km/h (5 Bft) 97,87 %
15.02.2020 15:20 13,6 C 13,3 C 12,2 C 71 % 1016,5 hPa 0,0 l/m 0 min 0 min 122 W/m 25,7 km/h (4 Bft) 97,83 %
15.02.2020 15:22 13,6 C 13,3 C 12,2 C 71 % 1016,5 hPa 0,0 l/m 0 min 0 min 127 W/m 19,3 km/h (3 Bft) 100,00 %
15.02.2020 15:24 13,6 C 13,3 C 12,2 C 71 % 1016,6 hPa 0,0 l/m 0 min 0 min 150 W/m 19,3 km/h (3 Bft) 100,00 %
15.02.2020 15:26 13,6 C 13,9 C 12,2 C 71 % 1016,5 hPa 0,0 l/m 2 min 0 min 188 W/m 19,3 km/h (3 Bft) 100,00 %
15.02.2020 15:28 13,6 C 13,3 C 12,2 C 72 % 1016,3 hPa 0,0 l/m 0 min 0 min 146 W/m 38,6 km/h (5 Bft) 100,00 %
15.02.2020 15:30 13,6 C 13,9 C 12,2 C 72 % 1016,4 hPa 0,0 l/m 2 min 0 min 166 W/m 35,4 km/h (5 Bft) 100,00 %
15.02.2020 15:32 13,6 C 13,9 C 12,2 C 72 % 1016,3 hPa 0,0 l/m 2 min 0 min 211 W/m 22,5 km/h (4 Bft) 100,00 %
15.02.2020 15:34 13,5 C 13,9 C 12,8 C 72 % 1016,3 hPa 0,0 l/m 2 min 0 min 210 W/m 35,4 km/h (5 Bft) 100,00 %
15.02.2020 15:36 13,6 C 14,4 C 12,8 C 73 % 1016,1 hPa 0,0 l/m 2 min 0 min 214 W/m 29,0 km/h (5 Bft) 97,87 %
15.02.2020 15:38 13,6 C 13,9 C 12,2 C 72 % 1016,3 hPa 0,0 l/m 2 min 0 min 216 W/m 35,4 km/h (5 Bft) 100,00 %
15.02.2020 15:40 13,6 C 13,9 C 12,2 C 72 % 1016,3 hPa 0,0 l/m 2 min 0 min 190 W/m 35,4 km/h (5 Bft) 100,00 %
15.02.2020 15:42 13,6 C 13,9 C 12,2 C 73 % 1016,3 hPa 0,0 l/m 2 min 0 min 179 W/m 22,5 km/h (4 Bft) 100,00 %
15.02.2020 15:44 13,6 C 13,3 C 12,2 C 73 % 1016,3 hPa 0,0 l/m 0 min 0 min 131 W/m 32,2 km/h (5 Bft) 100,00 %
15.02.2020 15:46 13,5 C 13,3 C 12,2 C 72 % 1016,3 hPa 0,0 l/m 2 min 0 min 136 W/m 48,3 km/h (6 Bft) 100,00 %
15.02.2020 15:48 13,4 C 13,9 C 12,2 C 72 % 1016,3 hPa 0,0 l/m 2 min 0 min 189 W/m 32,2 km/h (5 Bft) 100,00 %
15.02.2020 15:50 13,4 C 13,3 C 12,2 C 72 % 1016,3 hPa 0,0 l/m 2 min 0 min 161 W/m 38,6 km/h (5 Bft) 100,00 %
15.02.2020 15:52 13,4 C 13,3 C 12,2 C 72 % 1016,4 hPa 0,0 l/m 2 min 0 min 130 W/m 25,7 km/h (4 Bft) 100,00 %
15.02.2020 15:54 13,4 C 13,3 C 12,2 C 73 % 1016,3 hPa 0,0 l/m 2 min 0 min 144 W/m 29,0 km/h (5 Bft) 68,09 %
15.02.2020 15:56 13,4 C 12,8 C 12,2 C 72 % 1016,3 hPa 0,0 l/m 2 min 0 min 140 W/m 45,1 km/h (6 Bft) 85,29 %
15.02.2020 15:58 13,3 C 12,8 C 12,2 C 73 % 1016,2 hPa 0,0 l/m 0 min 0 min 116 W/m 32,2 km/h (5 Bft) 100,00 %
15.02.2020 16:00 13,3 C 12,8 C 12,2 C 73 % 1016,1 hPa 0,0 l/m 0 min 0 min 113 W/m 22,5 km/h (4 Bft) 100,00 %
15.02.2020 16:02 13,3 C 12,8 C 12,2 C 73 % 1016,1 hPa 0,0 l/m 2 min 0 min 119 W/m 25,7 km/h (4 Bft) 97,87 %
15.02.2020 16:04 13,3 C 12,8 C 12,2 C 73 % 1016,1 hPa 0,0 l/m 2 min 0 min 130 W/m 25,7 km/h (4 Bft) 100,00 %
15.02.2020 16:06 13,3 C 13,3 C 12,2 C 73 % 1016,0 hPa 0,0 l/m 2 min 0 min 132 W/m 19,3 km/h (3 Bft) 100,00 %
15.02.2020 16:08 13,2 C 12,8 C 12,2 C 73 % 1015,9 hPa 0,0 l/m 2 min 0 min 116 W/m 29,0 km/h (5 Bft) 100,00 %
15.02.2020 16:10 13,2 C 12,8 C 11,7 C 72 % 1015,9 hPa 0,0 l/m 2 min 0 min 109 W/m 29,0 km/h (5 Bft) 100,00 %
15.02.2020 16:12 13,2 C 12,8 C 11,7 C 73 % 1015,9 hPa 0,0 l/m 0 min 0 min 104 W/m 35,4 km/h (5 Bft) 100,00 %
15.02.2020 16:14 13,1 C 12,8 C 11,7 C 73 % 1015,7 hPa 0,0 l/m 0 min 0 min 100 W/m 25,7 km/h (4 Bft) 100,00 %
15.02.2020 16:16 13,1 C 12,8 C 11,7 C 73 % 1015,6 hPa 0,0 l/m 0 min 0 min 95 W/m 19,3 km/h (3 Bft) 100,00 %
15.02.2020 16:18 13,1 C 12,8 C 11,7 C 73 % 1015,6 hPa 0,0 l/m 0 min 0 min 89 W/m 22,5 km/h (4 Bft) 97,83 %
15.02.2020 16:20 13,1 C 12,2 C 11,7 C 73 % 1015,6 hPa 0,0 l/m 0 min 0 min 85 W/m 32,2 km/h (5 Bft) 100,00 %
15.02.2020 16:22 13,1 C 12,2 C 11,7 C 73 % 1015,5 hPa 0,0 l/m 0 min 0 min 82 W/m 16,1 km/h (3 Bft) 97,87 %
15.02.2020 16:24 13,0 C 12,2 C 11,7 C 73 % 1015,5 hPa 0,0 l/m 0 min 0 min 79 W/m 16,1 km/h (3 Bft) 97,87 %
15.02.2020 16:26 13,0 C 12,2 C 11,7 C 73 % 1015,5 hPa 0,0 l/m 0 min 0 min 76 W/m 29,0 km/h (5 Bft) 100,00 %
15.02.2020 16:28 12,9 C 12,2 C 11,7 C 73 % 1015,5 hPa 0,0 l/m 0 min 0 min 72 W/m 22,5 km/h (4 Bft) 100,00 %
15.02.2020 16:30 12,9 C 12,2 C 11,7 C 73 % 1015,4 hPa 0,0 l/m 0 min 0 min 70 W/m 22,5 km/h (4 Bft) 100,00 %
15.02.2020 16:32 12,9 C 12,2 C 11,7 C 73 % 1015,5 hPa 0,0 l/m 0 min 0 min 66 W/m 22,5 km/h (4 Bft) 100,00 %
15.02.2020 16:34 12,8 C 12,2 C 11,7 C 73 % 1015,5 hPa 0,0 l/m 0 min 0 min 62 W/m 25,7 km/h (4 Bft) 100,00 %
15.02.2020 16:36 12,8 C 12,2 C 11,1 C 74 % 1015,5 hPa 0,0 l/m 0 min 0 min 59 W/m 29,0 km/h (5 Bft) 100,00 %
15.02.2020 16:38 12,8 C 11,7 C 11,1 C 74 % 1015,4 hPa 0,0 l/m 0 min 0 min 55 W/m 38,6 km/h (5 Bft) 100,00 %
15.02.2020 16:40 12,7 C 11,7 C 11,1 C 74 % 1015,4 hPa 0,0 l/m 0 min 0 min 51 W/m 22,5 km/h (4 Bft) 100,00 %
15.02.2020 16:42 12,7 C 11,7 C 11,1 C 74 % 1015,4 hPa 0,0 l/m 0 min 0 min 47 W/m 19,3 km/h (3 Bft) 100,00 %
15.02.2020 16:44 12,7 C 11,7 C 11,1 C 74 % 1015,4 hPa 0,0 l/m 0 min 0 min 43 W/m 22,5 km/h (4 Bft) 100,00 %
15.02.2020 16:46 12,6 C 11,7 C 11,1 C 74 % 1015,3 hPa 0,0 l/m 0 min 0 min 41 W/m 35,4 km/h (5 Bft) 97,87 %
15.02.2020 16:48 12,6 C 11,7 C 11,1 C 74 % 1015,4 hPa 0,0 l/m 0 min 0 min 40 W/m 25,7 km/h (4 Bft) 100,00 %
15.02.2020 16:50 12,6 C 11,7 C 11,1 C 74 % 1015,3 hPa 0,0 l/m 0 min 0 min 39 W/m 19,3 km/h (3 Bft) 100,00 %
15.02.2020 16:52 12,5 C 11,7 C 11,1 C 74 % 1015,2 hPa 0,0 l/m 0 min 0 min 37 W/m 29,0 km/h (5 Bft) 100,00 %
15.02.2020 16:54 12,4 C 11,7 C 11,1 C 74 % 1015,1 hPa 0,0 l/m 0 min 0 min 34 W/m 29,0 km/h (5 Bft) 100,00 %
15.02.2020 16:56 12,4 C 11,7 C 11,1 C 74 % 1015,2 hPa 0,0 l/m 0 min 0 min 32 W/m 35,4 km/h (5 Bft) 97,87 %
15.02.2020 16:58 12,4 C 11,7 C 11,1 C 73 % 1015,1 hPa 0,0 l/m 0 min 0 min 32 W/m 41,8 km/h (6 Bft) 97,87 %
15.02.2020 17:00 12,3 C 11,7 C 11,1 C 73 % 1015,1 hPa 0,0 l/m 0 min 0 min 30 W/m 25,7 km/h (4 Bft) 95,74 %
15.02.2020 17:02 12,3 C 11,7 C 11,1 C 73 % 1015,1 hPa 0,0 l/m 0 min 0 min 30 W/m 25,7 km/h (4 Bft) 93,62 %
15.02.2020 17:04 12,3 C 11,7 C 10,6 C 73 % 1015,1 hPa 0,0 l/m 0 min 0 min 28 W/m 22,5 km/h (4 Bft) 95,74 %
15.02.2020 17:06 12,3 C 11,1 C 10,6 C 73 % 1015,1 hPa 0,0 l/m 0 min 0 min 26 W/m 22,5 km/h (4 Bft) 97,83 %
15.02.2020 17:08 12,2 C 11,1 C 10,6 C 74 % 1015,1 hPa 0,0 l/m 0 min 0 min 25 W/m 22,5 km/h (4 Bft) 97,87 %
15.02.2020 17:10 12,2 C 11,1 C 10,6 C 74 % 1015,0 hPa 0,0 l/m 0 min 0 min 23 W/m 19,3 km/h (3 Bft) 95,74 %
15.02.2020 17:12 12,2 C 11,1 C 10,6 C 74 % 1015,0 hPa 0,0 l/m 0 min 0 min 20 W/m 19,3 km/h (3 Bft) 95,74 %
15.02.2020 17:14 12,1 C 11,1 C 10,6 C 74 % 1015,0 hPa 0,0 l/m 0 min 0 min 19 W/m 22,5 km/h (4 Bft) 97,87 %
15.02.2020 17:16 12,1 C 11,1 C 10,6 C 74 % 1015,0 hPa 0,0 l/m 0 min 0 min 16 W/m 22,5 km/h (4 Bft) 95,65 %
15.02.2020 17:18 12,1 C 11,1 C 10,6 C 74 % 1014,9 hPa 0,0 l/m 0 min 0 min 13 W/m 22,5 km/h (4 Bft) 93,62 %
15.02.2020 17:20 12,0 C 10,6 C 10,0 C 74 % 1014,8 hPa 0,0 l/m 0 min 0 min 12 W/m 19,3 km/h (3 Bft) 93,62 %
15.02.2020 17:22 11,9 C 10,6 C 10,0 C 75 % 1014,8 hPa 0,0 l/m 0 min 0 min 12 W/m 12,9 km/h (3 Bft) 93,62 %
15.02.2020 17:24 11,9 C 10,6 C 10,0 C 75 % 1014,8 hPa 0,0 l/m 0 min 0 min 9 W/m 19,3 km/h (3 Bft) 87,23 %
15.02.2020 17:26 11,9 C 10,6 C 10,0 C 74 % 1014,8 hPa 0,0 l/m 0 min 0 min 8 W/m 22,5 km/h (4 Bft) 93,62 %
15.02.2020 17:28 11,8 C 10,6 C 10,0 C 75 % 1014,7 hPa 0,0 l/m 0 min 0 min 6 W/m 19,3 km/h (3 Bft) 93,48 %
15.02.2020 17:30 11,8 C 10,6 C 10,0 C 75 % 1014,8 hPa 0,0 l/m 0 min 0 min 5 W/m 16,1 km/h (3 Bft) 93,62 %
15.02.2020 17:32 11,7 C 10,6 C 10,0 C 75 % 1014,8 hPa 0,0 l/m 0 min 0 min 4 W/m 25,7 km/h (4 Bft) 91,49 %
15.02.2020 17:34 11,7 C 10,6 C 10,0 C 74 % 1014,8 hPa 0,0 l/m 0 min 0 min 0 W/m 22,5 km/h (4 Bft) 89,36 %
15.02.2020 17:36 11,6 C 10,6 C 10,0 C 74 % 1014,9 hPa 0,0 l/m 0 min 0 min 0 W/m 32,2 km/h (5 Bft) 91,49 %
15.02.2020 17:38 11,6 C 10,6 C 10,0 C 74 % 1014,9 hPa 0,0 l/m 0 min 0 min 0 W/m 22,5 km/h (4 Bft) 93,62 %
15.02.2020 17:40 11,6 C 10,6 C 10,0 C 75 % 1014,9 hPa 0,0 l/m 0 min 0 min 0 W/m 25,7 km/h (4 Bft) 93,48 %
15.02.2020 17:42 11,5 C 10,6 C 10,0 C 75 % 1014,9 hPa 0,0 l/m 0 min 0 min 0 W/m 22,5 km/h (4 Bft) 87,23 %
15.02.2020 17:44 11,5 C 10,6 C 10,0 C 75 % 1014,9 hPa 0,0 l/m 0 min 0 min 0 W/m 25,7 km/h (4 Bft) 93,62 %
15.02.2020 17:46 11,4 C 10,6 C 10,0 C 75 % 1014,9 hPa 0,0 l/m 0 min 0 min 0 W/m 22,5 km/h (4 Bft) 93,62 %
15.02.2020 17:48 11,4 C 10,6 C 10,0 C 75 % 1014,9 hPa 0,0 l/m 0 min 0 min 0 W/m 25,7 km/h (4 Bft) 91,49 %
15.02.2020 17:50 11,4 C 10,6 C 10,0 C 75 % 1014,9 hPa 0,0 l/m 0 min 0 min 0 W/m 19,3 km/h (3 Bft) 93,62 %
15.02.2020 17:52 11,4 C 10,6 C 10,0 C 76 % 1015,0 hPa 0,0 l/m 0 min 0 min 0 W/m 22,5 km/h (4 Bft) 89,13 %
15.02.2020 17:54 11,3 C 10,6 C 10,0 C 76 % 1014,9 hPa 0,0 l/m 0 min 0 min 0 W/m 22,5 km/h (4 Bft) 93,62 %
15.02.2020 17:56 11,3 C 10,6 C 10,0 C 76 % 1014,9 hPa 0,0 l/m 0 min 0 min 0 W/m 22,5 km/h (4 Bft) 93,62 %
15.02.2020 17:58 11,3 C 10,6 C 10,0 C 76 % 1014,8 hPa 0,0 l/m 0 min 0 min 0 W/m 19,3 km/h (3 Bft) 95,74 %
15.02.2020 18:00 11,3 C 10,6 C 10,0 C 76 % 1014,7 hPa 0,0 l/m 0 min 0 min 0 W/m 25,7 km/h (4 Bft) 93,62 %
15.02.2020 18:02 11,3 C 10,6 C 10,0 C 76 % 1014,8 hPa 0,0 l/m 0 min 0 min 0 W/m 19,3 km/h (3 Bft) 97,83 %
15.02.2020 18:04 11,3 C 10,6 C 10,0 C 76 % 1014,7 hPa 0,0 l/m 0 min 0 min 0 W/m 22,5 km/h (4 Bft) 97,87 %
15.02.2020 18:06 11,2 C 10,6 C 10,0 C 76 % 1014,7 hPa 0,0 l/m 0 min 0 min 0 W/m 29,0 km/h (5 Bft) 100,00 %
15.02.2020 18:08 11,2 C 10,6 C 10,0 C 75 % 1014,6 hPa 0,0 l/m 0 min 0 min 0 W/m 32,2 km/h (5 Bft) 100,00 %
15.02.2020 18:10 11,2 C 10,6 C 10,0 C 75 % 1014,6 hPa 0,0 l/m 0 min 0 min 0 W/m 22,5 km/h (4 Bft) 100,00 %
15.02.2020 18:12 11,2 C 10,6 C 9,4 C 75 % 1014,4 hPa 0,0 l/m 0 min 0 min 0 W/m 19,3 km/h (3 Bft) 100,00 %
15.02.2020 18:14 11,2 C 10,0 C 9,4 C 76 % 1014,5 hPa 0,0 l/m 0 min 0 min 0 W/m 22,5 km/h (4 Bft) 100,00 %
15.02.2020 18:16 11,2 C 10,0 C 9,4 C 76 % 1014,4 hPa 0,0 l/m 0 min 0 min 0 W/m 22,5 km/h (4 Bft) 97,87 %
15.02.2020 18:18 11,2 C 10,0 C 9,4 C 76 % 1014,3 hPa 0,0 l/m 0 min 0 min 0 W/m 19,3 km/h (3 Bft) 100,00 %
15.02.2020 18:20 11,1 C 10,0 C 9,4 C 76 % 1014,3 hPa 0,0 l/m 0 min 0 min 0 W/m 29,0 km/h (5 Bft) 100,00 %
15.02.2020 18:22 11,1 C 10,0 C 9,4 C 76 % 1014,2 hPa 0,0 l/m 0 min 0 min 0 W/m 22,5 km/h (4 Bft) 97,87 %
15.02.2020 18:24 11,1 C 10,0 C 9,4 C 76 % 1014,1 hPa 0,0 l/m 0 min 0 min 0 W/m 22,5 km/h (4 Bft) 100,00 %
15.02.2020 18:26 11,1 C 10,0 C 9,4 C 77 % 1014,1 hPa 0,0 l/m 0 min 0 min 0 W/m 22,5 km/h (4 Bft) 100,00 %
15.02.2020 18:28 11,0 C 10,0 C 9,4 C 77 % 1014,0 hPa 0,0 l/m 0 min 0 min 0 W/m 29,0 km/h (5 Bft) 100,00 %
15.02.2020 18:30 11,0 C 10,0 C 9,4 C 77 % 1013,9 hPa 0,0 l/m 0 min 0 min 0 W/m 25,7 km/h (4 Bft) 100,00 %
15.02.2020 18:32 10,9 C 10,0 C 9,4 C 77 % 1014,0 hPa 0,0 l/m 0 min 0 min 0 W/m 35,4 km/h (5 Bft) 100,00 %
15.02.2020 18:34 10,9 C 10,0 C 9,4 C 77 % 1014,0 hPa 0,0 l/m 0 min 0 min 0 W/m 22,5 km/h (4 Bft) 100,00 %
15.02.2020 18:36 10,9 C 10,0 C 9,4 C 77 % 1013,9 hPa 0,0 l/m 0 min 0 min 0 W/m 22,5 km/h (4 Bft) 100,00 %
15.02.2020 18:38 10,9 C 10,0 C 9,4 C 77 % 1013,9 hPa 0,0 l/m 0 min 0 min 0 W/m 35,4 km/h (5 Bft) 100,00 %
15.02.2020 18:40 10,8 C 10,0 C 9,4 C 77 % 1013,9 hPa 0,0 l/m 0 min 0 min 0 W/m 32,2 km/h (5 Bft) 100,00 %
15.02.2020 18:42 10,8 C 10,0 C 9,4 C 77 % 1014,0 hPa 0,0 l/m 0 min 0 min 0 W/m 22,5 km/h (4 Bft) 100,00 %
15.02.2020 18:44 10,8 C 10,0 C 9,4 C 77 % 1014,1 hPa 0,0 l/m 0 min 0 min 0 W/m 25,7 km/h (4 Bft) 97,87 %
15.02.2020 18:46 10,8 C 10,0 C 9,4 C 77 % 1014,1 hPa 0,0 l/m 0 min 0 min 0 W/m 19,3 km/h (3 Bft) 100,00 %
15.02.2020 18:48 10,8 C 10,0 C 9,4 C 77 % 1014,1 hPa 0,0 l/m 0 min 0 min 0 W/m 19,3 km/h (3 Bft) 100,00 %
15.02.2020 18:50 10,8 C 10,0 C 9,4 C 77 % 1014,3 hPa 0,0 l/m 0 min 0 min 0 W/m 38,6 km/h (5 Bft) 100,00 %
15.02.2020 18:52 10,8 C 10,0 C 9,4 C 77 % 1014,3 hPa 0,0 l/m 0 min 0 min 0 W/m 22,5 km/h (4 Bft) 97,87 %
15.02.2020 18:54 10,7 C 10,0 C 9,4 C 78 % 1014,2 hPa 0,0 l/m 0 min 0 min 0 W/m 25,7 km/h (4 Bft) 97,87 %
15.02.2020 18:56 10,7 C 9,4 C 8,9 C 78 % 1014,1 hPa 0,0 l/m 0 min 0 min 0 W/m 16,1 km/h (3 Bft) 100,00 %
15.02.2020 18:58 10,7 C 9,4 C 8,9 C 78 % 1014,0 hPa 0,0 l/m 0 min 0 min 0 W/m 19,3 km/h (3 Bft) 100,00 %
15.02.2020 19:00 10,7 C 9,4 C 8,9 C 78 % 1013,8 hPa 0,0 l/m 0 min 0 min 0 W/m 22,5 km/h (4 Bft) 100,00 %
15.02.2020 19:02 10,6 C 9,4 C 8,9 C 78 % 1013,9 hPa 0,0 l/m 0 min 0 min 0 W/m 22,5 km/h (4 Bft) 100,00 %
15.02.2020 19:04 10,6 C 9,4 C 8,9 C 78 % 1014,1 hPa 0,0 l/m 0 min 0 min 0 W/m 25,7 km/h (4 Bft) 97,87 %
15.02.2020 19:06 10,6 C 9,4 C 8,9 C 79 % 1014,0 hPa 0,0 l/m 0 min 0 min 0 W/m 22,5 km/h (4 Bft) 100,00 %
15.02.2020 19:08 10,6 C 9,4 C 8,9 C 79 % 1014,0 hPa 0,0 l/m 0 min 0 min 0 W/m 22,5 km/h (4 Bft) 100,00 %
15.02.2020 19:10 10,5 C 9,4 C 8,9 C 79 % 1014,1 hPa 0,0 l/m 0 min 0 min 0 W/m 25,7 km/h (4 Bft) 100,00 %
15.02.2020 19:12 10,5 C 9,4 C 8,9 C 79 % 1013,9 hPa 0,0 l/m 0 min 0 min 0 W/m 25,7 km/h (4 Bft) 100,00 %
15.02.2020 19:14 10,5 C 9,4 C 8,9 C 79 % 1013,8 hPa 0,0 l/m 0 min 0 min 0 W/m 22,5 km/h (4 Bft) 100,00 %
15.02.2020 19:16 10,5 C 9,4 C 8,9 C 79 % 1013,9 hPa 0,0 l/m 0 min 0 min 0 W/m 16,1 km/h (3 Bft) 100,00 %
15.02.2020 19:18 10,4 C 9,4 C 8,9 C 79 % 1014,0 hPa 0,0 l/m 0 min 0 min 0 W/m 22,5 km/h (4 Bft) 100,00 %
15.02.2020 19:20 10,4 C 9,4 C 8,9 C 79 % 1014,1 hPa 0,0 l/m 0 min 0 min 0 W/m 19,3 km/h (3 Bft) 100,00 %
15.02.2020 19:22 10,4 C 9,4 C 8,9 C 79 % 1014,2 hPa 0,0 l/m 0 min 0 min 0 W/m 22,5 km/h (4 Bft) 100,00 %
15.02.2020 19:24 10,4 C 9,4 C 8,9 C 79 % 1014,2 hPa 0,0 l/m 0 min 0 min 0 W/m 25,7 km/h (4 Bft) 100,00 %
15.02.2020 19:26 10,4 C 9,4 C 8,9 C 79 % 1014,1 hPa 0,0 l/m 0 min 0 min 0 W/m 29,0 km/h (5 Bft) 100,00 %
15.02.2020 19:28 10,4 C 9,4 C 8,9 C 79 % 1014,1 hPa 0,0 l/m 0 min 0 min 0 W/m 22,5 km/h (4 Bft) 100,00 %
15.02.2020 19:30 10,4 C 9,4 C 8,9 C 79 % 1014,3 hPa 0,0 l/m 0 min 0 min 0 W/m 25,7 km/h (4 Bft) 97,87 %
15.02.2020 19:32 10,4 C 9,4 C 8,9 C 79 % 1014,3 hPa 0,0 l/m 0 min 0 min 0 W/m 22,5 km/h (4 Bft) 95,74 %
15.02.2020 19:34 10,4 C 9,4 C 8,9 C 79 % 1014,2 hPa 0,0 l/m 0 min 0 min 0 W/m 22,5 km/h (4 Bft) 100,00 %
15.02.2020 19:36 10,4 C 9,4 C 8,9 C 79 % 1014,2 hPa 0,0 l/m 0 min 0 min 0 W/m 22,5 km/h (4 Bft) 97,83 %
15.02.2020 19:38 10,4 C 9,4 C 8,9 C 79 % 1014,1 hPa 0,0 l/m 0 min 0 min 0 W/m 25,7 km/h (4 Bft) 100,00 %
15.02.2020 19:40 10,4 C 9,4 C 8,9 C 79 % 1013,8 hPa 0,0 l/m 0 min 0 min 0 W/m 25,7 km/h (4 Bft) 100,00 %
15.02.2020 19:42 10,4 C 9,4 C 8,9 C 79 % 1014,0 hPa 0,0 l/m 0 min 0 min 0 W/m 22,5 km/h (4 Bft) 100,00 %
15.02.2020 19:44 10,4 C 9,4 C 8,9 C 79 % 1014,1 hPa 0,0 l/m 0 min 0 min 0 W/m 35,4 km/h (5 Bft) 100,00 %
15.02.2020 19:46 10,4 C 10,0 C 8,9 C 79 % 1014,0 hPa 0,0 l/m 0 min 0 min 0 W/m 25,7 km/h (4 Bft) 97,87 %
15.02.2020 19:48 10,4 C 10,0 C 9,4 C 79 % 1014,0 hPa 0,0 l/m 0 min 0 min 0 W/m 25,7 km/h (4 Bft) 100,00 %
15.02.2020 19:50 10,4 C 10,0 C 9,4 C 79 % 1014,0 hPa 0,0 l/m 0 min 0 min 0 W/m 25,7 km/h (4 Bft) 100,00 %
15.02.2020 19:52 10,4 C 10,0 C 9,4 C 79 % 1014,1 hPa 0,0 l/m 0 min 0 min 0 W/m 19,3 km/h (3 Bft) 100,00 %
15.02.2020 19:54 10,4 C 10,0 C 9,4 C 79 % 1014,1 hPa 0,0 l/m 0 min 0 min 0 W/m 22,5 km/h (4 Bft) 97,87 %
15.02.2020 19:56 10,4 C 10,0 C 9,4 C 79 % 1014,0 hPa 0,0 l/m 0 min 0 min 0 W/m 19,3 km/h (3 Bft) 97,87 %
15.02.2020 19:58 10,4 C 10,0 C 9,4 C 79 % 1014,1 hPa 0,0 l/m 0 min 0 min 0 W/m 22,5 km/h (4 Bft) 93,62 %
15.02.2020 20:00 10,4 C 10,0 C 9,4 C 79 % 1014,2 hPa 0,0 l/m 0 min 0 min 0 W/m 22,5 km/h (4 Bft) 97,83 %
15.02.2020 20:02 10,4 C 10,0 C 9,4 C 79 % 1014,1 hPa 0,0 l/m 0 min 0 min 0 W/m 22,5 km/h (4 Bft) 95,74 %
15.02.2020 20:04 10,4 C 10,0 C 9,4 C 79 % 1014,0 hPa 0,0 l/m 0 min 0 min 0 W/m 22,5 km/h (4 Bft) 95,74 %
15.02.2020 20:06 10,5 C 10,0 C 8,9 C 79 % 1013,9 hPa 0,0 l/m 0 min 0 min 0 W/m 16,1 km/h (3 Bft) 97,87 %
15.02.2020 20:08 10,4 C 10,0 C 8,9 C 79 % 1013,8 hPa 0,0 l/m 0 min 0 min 0 W/m 22,5 km/h (4 Bft) 95,74 %
15.02.2020 20:10 10,5 C 10,0 C 8,9 C 79 % 1013,9 hPa 0,0 l/m 0 min 0 min 0 W/m 19,3 km/h (3 Bft) 95,65 %
15.02.2020 20:12 10,4 C 10,0 C 8,9 C 79 % 1013,9 hPa 0,0 l/m 0 min 0 min 0 W/m 19,3 km/h (3 Bft) 95,74 %
15.02.2020 20:14 10,5 C 9,4 C 8,9 C 79 % 1013,8 hPa 0,0 l/m 0 min 0 min 0 W/m 19,3 km/h (3 Bft) 95,74 %
15.02.2020 20:16 10,4 C 9,4 C 8,9 C 79 % 1013,9 hPa 0,0 l/m 0 min 0 min 0 W/m 19,3 km/h (3 Bft) 95,74 %
15.02.2020 20:18 10,4 C 9,4 C 8,9 C 79 % 1013,7 hPa 0,0 l/m 0 min 0 min 0 W/m 22,5 km/h (4 Bft) 93,62 %
15.02.2020 20:20 10,4 C 9,4 C 8,9 C 79 % 1013,7 hPa 0,0 l/m 0 min 0 min 0 W/m 22,5 km/h (4 Bft) 95,74 %
15.02.2020 20:22 10,4 C 9,4 C 8,9 C 79 % 1013,5 hPa 0,0 l/m 0 min 0 min 0 W/m 19,3 km/h (3 Bft) 93,48 %
15.02.2020 20:24 10,4 C 9,4 C 8,9 C 79 % 1013,3 hPa 0,0 l/m 0 min 0 min 0 W/m 29,0 km/h (5 Bft) 95,74 %
15.02.2020 20:26 10,4 C 9,4 C 8,9 C 79 % 1013,3 hPa 0,0 l/m 0 min 0 min 0 W/m 22,5 km/h (4 Bft) 93,62 %
15.02.2020 20:28 10,4 C 9,4 C 8,9 C 79 % 1013,2 hPa 0,0 l/m 0 min 0 min 0 W/m 16,1 km/h (3 Bft) 95,74 %
15.02.2020 20:30 10,4 C 9,4 C 8,9 C 79 % 1013,3 hPa 0,0 l/m 0 min 0 min 0 W/m 19,3 km/h (3 Bft) 95,74 %
15.02.2020 20:32 10,4 C 9,4 C 8,9 C 79 % 1013,3 hPa 0,0 l/m 0 min 0 min 0 W/m 22,5 km/h (4 Bft) 95,74 %
15.02.2020 20:34 10,4 C 9,4 C 8,9 C 79 % 1013,2 hPa 0,0 l/m 0 min 0 min 0 W/m 16,1 km/h (3 Bft) 93,48 %
15.02.2020 20:36 10,3 C 9,4 C 8,9 C 79 % 1013,1 hPa 0,0 l/m 0 min 0 min 0 W/m 19,3 km/h (3 Bft) 93,62 %
15.02.2020 20:38 10,3 C 9,4 C 8,9 C 79 % 1013,3 hPa 0,0 l/m 0 min 0 min 0 W/m 16,1 km/h (3 Bft) 95,74 %
15.02.2020 20:40 10,3 C 9,4 C 8,9 C 79 % 1013,4 hPa 0,0 l/m 0 min 0 min 0 W/m 25,7 km/h (4 Bft) 93,62 %
15.02.2020 20:42 10,3 C 9,4 C 8,9 C 79 % 1013,3 hPa 0,0 l/m 0 min 0 min 0 W/m 19,3 km/h (3 Bft) 95,74 %
15.02.2020 20:44 10,3 C 9,4 C 8,9 C 79 % 1013,0 hPa 0,0 l/m 0 min 0 min 0 W/m 22,5 km/h (4 Bft) 95,74 %
15.02.2020 20:46 10,3 C 10,0 C 8,9 C 79 % 1013,0 hPa 0,0 l/m 0 min 0 min 0 W/m 22,5 km/h (4 Bft) 95,65 %
15.02.2020 20:48 10,3 C 10,0 C 8,9 C 78 % 1012,8 hPa 0,0 l/m 0 min 0 min 0 W/m 22,5 km/h (4 Bft) 95,74 %
15.02.2020 20:50 10,3 C 10,0 C 9,4 C 78 % 1012,8 hPa 0,0 l/m 0 min 0 min 0 W/m 29,0 km/h (5 Bft) 95,74 %
15.02.2020 20:52 10,3 C 10,0 C 9,4 C 78 % 1012,7 hPa 0,0 l/m 0 min 0 min 0 W/m 22,5 km/h (4 Bft) 95,74 %
15.02.2020 20:54 10,3 C 10,0 C 9,4 C 78 % 1012,7 hPa 0,0 l/m 0 min 0 min 0 W/m 29,0 km/h (5 Bft) 93,62 %
15.02.2020 20:56 10,4 C 10,0 C 9,4 C 78 % 1012,8 hPa 0,0 l/m 0 min 0 min 0 W/m 25,7 km/h (4 Bft) 97,87 %
15.02.2020 20:58 10,4 C 10,0 C 9,4 C 78 % 1012,6 hPa 0,0 l/m 0 min 0 min 0 W/m 22,5 km/h (4 Bft) 97,83 %
15.02.2020 21:00 10,5 C 10,0 C 9,4 C 77 % 1012,4 hPa 0,0 l/m 0 min 0 min 0 W/m 35,4 km/h (5 Bft) 97,87 %
15.02.2020 21:02 10,5 C 10,0 C 9,4 C 77 % 1012,5 hPa 0,0 l/m 0 min 0 min 0 W/m 25,7 km/h (4 Bft) 97,87 %
15.02.2020 21:04 10,6 C 10,0 C 9,4 C 77 % 1012,6 hPa 0,0 l/m 0 min 0 min 0 W/m 35,4 km/h (5 Bft) 97,87 %
15.02.2020 21:06 10,6 C 10,0 C 9,4 C 77 % 1012,5 hPa 0,0 l/m 0 min 0 min 0 W/m 32,2 km/h (5 Bft) 97,87 %
15.02.2020 21:08 10,7 C 10,0 C 9,4 C 77 % 1012,4 hPa 0,0 l/m 0 min 0 min 0 W/m 29,0 km/h (5 Bft) 97,87 %
15.02.2020 21:10 10,7 C 10,6 C 9,4 C 76 % 1012,4 hPa 0,0 l/m 0 min 0 min 0 W/m 35,4 km/h (5 Bft) 97,83 %
15.02.2020 21:12 10,7 C 10,0 C 9,4 C 76 % 1012,4 hPa 0,0 l/m 0 min 0 min 0 W/m 19,3 km/h (3 Bft) 97,87 %
15.02.2020 21:14 10,8 C 10,6 C 9,4 C 76 % 1012,4 hPa 0,0 l/m 0 min 0 min 0 W/m 35,4 km/h (5 Bft) 97,87 %
15.02.2020 21:16 10,8 C 10,6 C 9,4 C 76 % 1012,4 hPa 0,0 l/m 0 min 0 min 0 W/m 29,0 km/h (5 Bft) 97,87 %
15.02.2020 21:18 10,8 C 10,6 C 9,4 C 76 % 1012,5 hPa 0,0 l/m 0 min 0 min 0 W/m 25,7 km/h (4 Bft) 97,87 %
15.02.2020 21:20 10,9 C 10,6 C 9,4 C 76 % 1012,5 hPa 0,0 l/m 0 min 0 min 0 W/m 25,7 km/h (4 Bft) 97,87 %
15.02.2020 21:22 10,9 C 10,6 C 9,4 C 76 % 1012,5 hPa 0,0 l/m 0 min 0 min 0 W/m 29,0 km/h (5 Bft) 97,83 %
15.02.2020 21:24 10,9 C 10,6 C 9,4 C 76 % 1012,5 hPa 0,0 l/m 0 min 0 min 0 W/m 22,5 km/h (4 Bft) 97,87 %
15.02.2020 21:26 10,9 C 10,6 C 9,4 C 76 % 1012,3 hPa 0,0 l/m 0 min 0 min 0 W/m 25,7 km/h (4 Bft) 97,87 %
15.02.2020 21:28 10,9 C 10,6 C 9,4 C 76 % 1012,2 hPa 0,0 l/m 0 min 0 min 0 W/m 22,5 km/h (4 Bft) 97,87 %
15.02.2020 21:30 10,9 C 10,6 C 9,4 C 76 % 1012,3 hPa 0,0 l/m 0 min 0 min 0 W/m 22,5 km/h (4 Bft) 97,87 %
15.02.2020 21:32 10,9 C 10,6 C 9,4 C 76 % 1012,2 hPa 0,0 l/m 0 min 0 min 0 W/m 25,7 km/h (4 Bft) 97,83 %
15.02.2020 21:34 11,0 C 10,6 C 10,0 C 76 % 1012,2 hPa 0,0 l/m 0 min 0 min 0 W/m 25,7 km/h (4 Bft) 97,87 %
15.02.2020 21:36 11,0 C 10,6 C 10,0 C 76 % 1012,2 hPa 0,0 l/m 0 min 0 min 0 W/m 22,5 km/h (4 Bft) 97,87 %
15.02.2020 21:38 11,0 C 10,6 C 9,4 C 76 % 1012,2 hPa 0,0 l/m 0 min 0 min 0 W/m 19,3 km/h (3 Bft) 100,00 %
15.02.2020 21:40 11,1 C 10,6 C 10,0 C 76 % 1012,3 hPa 0,0 l/m 0 min 0 min 0 W/m 19,3 km/h (3 Bft) 100,00 %
15.02.2020 21:42 11,1 C 10,6 C 10,0 C 76 % 1012,3 hPa 0,0 l/m 0 min 0 min 0 W/m 22,5 km/h (4 Bft) 100,00 %
15.02.2020 21:44 11,1 C 10,6 C 10,0 C 76 % 1012,3 hPa 0,0 l/m 0 min 0 min 0 W/m 29,0 km/h (5 Bft) 100,00 %
15.02.2020 21:46 11,1 C 10,6 C 10,0 C 76 % 1012,2 hPa 0,0 l/m 0 min 0 min 0 W/m 32,2 km/h (5 Bft) 100,00 %
15.02.2020 21:48 11,1 C 10,6 C 10,0 C 75 % 1012,2 hPa 0,0 l/m 0 min 0 min 0 W/m 22,5 km/h (4 Bft) 100,00 %
15.02.2020 21:50 11,2 C 10,6 C 10,0 C 75 % 1012,1 hPa 0,0 l/m 0 min 0 min 0 W/m 22,5 km/h (4 Bft) 100,00 %
15.02.2020 21:52 11,2 C 10,6 C 10,0 C 75 % 1012,1 hPa 0,0 l/m 0 min 0 min 0 W/m 29,0 km/h (5 Bft) 100,00 %
15.02.2020 21:54 11,2 C 10,6 C 10,0 C 75 % 1012,0 hPa 0,0 l/m 0 min 0 min 0 W/m 22,5 km/h (4 Bft) 100,00 %
15.02.2020 21:56 11,2 C 11,1 C 10,0 C 75 % 1012,0 hPa 0,0 l/m 0 min 0 min 0 W/m 41,8 km/h (6 Bft) 100,00 %
15.02.2020 21:58 11,3 C 11,1 C 10,0 C 75 % 1012,1 hPa 0,0 l/m 0 min 0 min 0 W/m 25,7 km/h (4 Bft) 100,00 %
15.02.2020 22:00 11,3 C 11,1 C 10,6 C 75 % 1011,9 hPa 0,0 l/m 0 min 0 min 0 W/m 22,5 km/h (4 Bft) 100,00 %
15.02.2020 22:02 11,4 C 11,1 C 10,0 C 75 % 1011,9 hPa 0,0 l/m 0 min 0 min 0 W/m 22,5 km/h (4 Bft) 97,87 %
15.02.2020 22:04 11,4 C 11,1 C 10,6 C 75 % 1012,0 hPa 0,0 l/m 0 min 0 min 0 W/m 22,5 km/h (4 Bft) 100,00 %
15.02.2020 22:06 11,4 C 11,1 C 10,0 C 75 % 1012,0 hPa 0,0 l/m 0 min 0 min 0 W/m 32,2 km/h (5 Bft) 100,00 %
15.02.2020 22:08 11,5 C 11,1 C 10,6 C 74 % 1012,0 hPa 0,0 l/m 0 min 0 min 0 W/m 29,0 km/h (5 Bft) 100,00 %
15.02.2020 22:10 11,6 C 11,1 C 10,6 C 74 % 1011,8 hPa 0,0 l/m 0 min 0 min 0 W/m 32,2 km/h (5 Bft) 100,00 %
15.02.2020 22:12 11,6 C 11,1 C 10,6 C 74 % 1011,9 hPa 0,0 l/m 0 min 0 min 0 W/m 29,0 km/h (5 Bft) 97,87 %
15.02.2020 22:14 11,6 C 11,1 C 10,6 C 74 % 1012,0 hPa 0,0 l/m 0 min 0 min 0 W/m 35,4 km/h (5 Bft) 100,00 %
15.02.2020 22:16 11,7 C 11,1 C 10,6 C 74 % 1012,0 hPa 0,0 l/m 0 min 0 min 0 W/m 29,0 km/h (5 Bft) 97,87 %
15.02.2020 22:18 11,7 C 11,7 C 10,6 C 74 % 1011,8 hPa 0,0 l/m 0 min 0 min 0 W/m 38,6 km/h (5 Bft) 100,00 %
15.02.2020 22:20 11,8 C 11,7 C 10,6 C 73 % 1011,6 hPa 0,0 l/m 0 min 0 min 0 W/m 25,7 km/h (4 Bft) 100,00 %
15.02.2020 22:22 11,8 C 11,1 C 10,6 C 73 % 1011,6 hPa 0,0 l/m 0 min 0 min 0 W/m 19,3 km/h (3 Bft) 97,87 %
15.02.2020 22:24 11,8 C 11,1 C 10,6 C 73 % 1011,6 hPa 0,0 l/m 0 min 0 min 0 W/m 35,4 km/h (5 Bft) 97,87 %
15.02.2020 22:26 11,9 C 11,1 C 10,6 C 73 % 1011,5 hPa 0,0 l/m 0 min 0 min 0 W/m 29,0 km/h (5 Bft) 97,87 %
15.02.2020 22:28 11,9 C 11,1 C 10,6 C 73 % 1011,6 hPa 0,0 l/m 0 min 0 min 0 W/m 25,7 km/h (4 Bft) 95,74 %
15.02.2020 22:30 11,9 C 11,1 C 10,6 C 73 % 1011,6 hPa 0,0 l/m 0 min 0 min 0 W/m 41,8 km/h (6 Bft) 97,83 %
15.02.2020 22:32 11,9 C 11,1 C 10,6 C 73 % 1011,6 hPa 0,0 l/m 0 min 0 min 0 W/m 25,7 km/h (4 Bft) 97,87 %
15.02.2020 22:34 11,9 C 11,7 C 10,6 C 73 % 1011,7 hPa 0,0 l/m 0 min 0 min 0 W/m 35,4 km/h (5 Bft) 100,00 %
15.02.2020 22:36 12,0 C 11,7 C 10,6 C 73 % 1011,6 hPa 0,0 l/m 0 min 0 min 0 W/m 22,5 km/h (4 Bft) 100,00 %
15.02.2020 22:38 12,0 C 11,7 C 10,6 C 73 % 1011,6 hPa 0,0 l/m 0 min 0 min 0 W/m 22,5 km/h (4 Bft) 100,00 %
15.02.2020 22:40 12,0 C 11,7 C 10,6 C 73 % 1011,6 hPa 0,0 l/m 0 min 0 min 0 W/m 25,7 km/h (4 Bft) 97,87 %
15.02.2020 22:42 12,1 C 11,7 C 10,6 C 73 % 1011,6 hPa 0,0 l/m 0 min 0 min 0 W/m 32,2 km/h (5 Bft) 95,65 %
15.02.2020 22:44 12,1 C 11,7 C 10,6 C 72 % 1011,5 hPa 0,0 l/m 0 min 0 min 0 W/m 32,2 km/h (5 Bft) 97,87 %
15.02.2020 22:46 12,1 C 11,7 C 10,6 C 72 % 1011,6 hPa 0,0 l/m 0 min 0 min 0 W/m 35,4 km/h (5 Bft) 97,87 %
15.02.2020 22:48 12,1 C 11,7 C 11,1 C 72 % 1011,6 hPa 0,0 l/m 0 min 0 min 0 W/m 38,6 km/h (5 Bft) 97,87 %
15.02.2020 22:50 12,2 C 11,7 C 11,1 C 72 % 1011,5 hPa 0,0 l/m 0 min 0 min 0 W/m 35,4 km/h (5 Bft) 93,62 %
15.02.2020 22:52 12,2 C 11,7 C 11,1 C 72 % 1011,5 hPa 0,0 l/m 0 min 0 min 0 W/m 38,6 km/h (5 Bft) 95,74 %
15.02.2020 22:54 12,2 C 11,7 C 11,1 C 72 % 1011,5 hPa 0,0 l/m 0 min 0 min 0 W/m 29,0 km/h (5 Bft) 93,48 %
15.02.2020 22:56 12,2 C 11,7 C 11,1 C 72 % 1011,2 hPa 0,0 l/m 0 min 0 min 0 W/m 35,4 km/h (5 Bft) 95,74 %
15.02.2020 22:58 12,3 C 11,7 C 11,1 C 72 % 1011,3 hPa 0,0 l/m 0 min 0 min 0 W/m 32,2 km/h (5 Bft) 95,74 %
15.02.2020 23:00 12,3 C 11,7 C 11,1 C 72 % 1011,4 hPa 0,0 l/m 0 min 0 min 0 W/m 29,0 km/h (5 Bft) 95,74 %
15.02.2020 23:02 12,3 C 11,7 C 11,1 C 72 % 1011,2 hPa 0,0 l/m 0 min 0 min 0 W/m 22,5 km/h (4 Bft) 95,74 %
15.02.2020 23:04 12,3 C 11,7 C 11,1 C 72 % 1011,3 hPa 0,0 l/m 0 min 0 min 0 W/m 35,4 km/h (5 Bft) 95,74 %
15.02.2020 23:06 12,3 C 11,7 C 11,1 C 72 % 1011,1 hPa 0,0 l/m 0 min 0 min 0 W/m 45,1 km/h (6 Bft) 93,62 %
15.02.2020 23:08 12,3 C 11,7 C 11,1 C 72 % 1011,1 hPa 0,0 l/m 0 min 0 min 0 W/m 35,4 km/h (5 Bft) 95,65 %
15.02.2020 23:10 12,3 C 11,7 C 11,1 C 72 % 1011,0 hPa 0,0 l/m 0 min 0 min 0 W/m 32,2 km/h (5 Bft) 95,74 %
15.02.2020 23:12 12,3 C 11,7 C 11,1 C 72 % 1011,2 hPa 0,0 l/m 0 min 0 min 0 W/m 32,2 km/h (5 Bft) 93,62 %
15.02.2020 23:14 12,4 C 11,7 C 11,1 C 72 % 1011,1 hPa 0,0 l/m 0 min 0 min 0 W/m 48,3 km/h (6 Bft) 95,74 %
15.02.2020 23:16 12,4 C 11,7 C 11,1 C 72 % 1010,9 hPa 0,0 l/m 0 min 0 min 0 W/m 41,8 km/h (6 Bft) 95,74 %
15.02.2020 23:18 12,4 C 11,7 C 11,1 C 72 % 1010,9 hPa 0,0 l/m 0 min 0 min 0 W/m 25,7 km/h (4 Bft) 95,65 %
15.02.2020 23:20 12,4 C 11,7 C 11,1 C 72 % 1010,8 hPa 0,0 l/m 0 min 0 min 0 W/m 38,6 km/h (5 Bft) 93,62 %
15.02.2020 23:22 12,4 C 11,7 C 11,1 C 72 % 1011,0 hPa 0,0 l/m 0 min 0 min 0 W/m 29,0 km/h (5 Bft) 95,74 %
15.02.2020 23:24 12,4 C 11,7 C 11,1 C 72 % 1010,8 hPa 0,0 l/m 0 min 0 min 0 W/m 32,2 km/h (5 Bft) 95,74 %
15.02.2020 23:26 12,4 C 11,7 C 11,1 C 72 % 1010,9 hPa 0,0 l/m 0 min 0 min 0 W/m 29,0 km/h (5 Bft) 95,74 %
15.02.2020 23:28 12,4 C 11,7 C 11,1 C 72 % 1010,9 hPa 0,0 l/m 0 min 0 min 0 W/m 35,4 km/h (5 Bft) 97,87 %
15.02.2020 23:30 12,4 C 11,7 C 11,1 C 72 % 1010,8 hPa 0,0 l/m 0 min 0 min 0 W/m 38,6 km/h (5 Bft) 93,48 %
15.02.2020 23:32 12,4 C 11,7 C 11,1 C 72 % 1010,9 hPa 0,0 l/m 0 min 0 min 0 W/m 35,4 km/h (5 Bft) 97,87 %
15.02.2020 23:34 12,4 C 11,7 C 11,1 C 72 % 1011,1 hPa 0,0 l/m 0 min 0 min 0 W/m 35,4 km/h (5 Bft) 95,74 %
15.02.2020 23:36 12,4 C 11,7 C 11,1 C 72 % 1010,9 hPa 0,0 l/m 0 min 0 min 0 W/m 32,2 km/h (5 Bft) 100,00 %
15.02.2020 23:38 12,4 C 11,7 C 11,1 C 73 % 1010,8 hPa 0,0 l/m 0 min 0 min 0 W/m 32,2 km/h (5 Bft) 100,00 %
15.02.2020 23:40 12,4 C 11,7 C 11,1 C 73 % 1010,8 hPa 0,0 l/m 0 min 0 min 0 W/m 41,8 km/h (6 Bft) 100,00 %
15.02.2020 23:42 12,4 C 11,7 C 11,1 C 73 % 1010,7 hPa 0,0 l/m 0 min 0 min 0 W/m 29,0 km/h (5 Bft) 100,00 %
15.02.2020 23:44 12,4 C 11,7 C 11,1 C 73 % 1010,7 hPa 0,0 l/m 0 min 0 min 0 W/m 22,5 km/h (4 Bft) 100,00 %
15.02.2020 23:46 12,4 C 11,7 C 11,1 C 73 % 1010,6 hPa 0,0 l/m 0 min 0 min 0 W/m 25,7 km/h (4 Bft) 100,00 %
15.02.2020 23:48 12,4 C 11,7 C 11,1 C 73 % 1010,5 hPa 0,0 l/m 0 min 0 min 0 W/m 29,0 km/h (5 Bft) 100,00 %
15.02.2020 23:50 12,3 C 11,7 C 11,1 C 73 % 1010,4 hPa 0,0 l/m 0 min 0 min 0 W/m 32,2 km/h (5 Bft) 100,00 %
15.02.2020 23:52 12,3 C 11,7 C 10,6 C 73 % 1010,5 hPa 0,0 l/m 0 min 0 min 0 W/m 38,6 km/h (5 Bft) 100,00 %
15.02.2020 23:54 12,3 C 11,7 C 10,6 C 73 % 1010,4 hPa 0,0 l/m 0 min 0 min 0 W/m 29,0 km/h (5 Bft) 100,00 %
15.02.2020 23:56 12,3 C 11,7 C 10,6 C 73 % 1010,4 hPa 0,0 l/m 0 min 0 min 0 W/m 29,0 km/h (5 Bft) 100,00 %
15.02.2020 23:58 12,3 C 11,7 C 11,1 C 74 % 1010,4 hPa 0,0 l/m 0 min 0 min 0 W/m 38,6 km/h (5 Bft) 100,00 %
_ Min-Zeit 05:50 02:28 02:14 14:22 23:50 - - - - 04:04 08:04
Minimum _ 5,0 C 4,4 C 3,9 C 69 % 1010,4 hPa - - - - 0,0 km/h (0 Bft) 57,89 %
_ Max-Zeit 14:36 14:02 13:06 06:40 00:00 11:20 09:44 00:00 13:04 12:58 00:26
Maximum _ 13,7 C 16,7 C 16,1 C 94 % 1023,2 hPa 0,2 l/m 2 min 0 min 500 W/m 51,5 km/h
O-SO (7 Bft)
100,00 %
Durchschnitt _ 9,1 C 9,1 C 8,0 C 83 % 1017,9 hPa #0,2 l/m #5:42 h #0 min. 218 W/m 21,7 km/h (4 Bft) 97,49 %
© 2020 W. Hausmann